              Height (m), 1500.0000, 1650.0000, 1800.0000, 1950.0000, 2100.0000, 2250.0000, 2400.0000, 2550.0000, 2700.0000, 2850.0000, 3000.0000, 3150.0000, 3300.0000, 3450.0000, 3600.0000, 3750.0000, 3900.0000, 4050.0000, 4200.0000, 4350.0000, 4500.0000, 4650.0000, 4800.0000, 4950.0000, 5100.0000, 5250.0000, 5400.0000, 5550.0000, 5700.0000, 5850.0000, 6000.0000, 6150.0000, 6300.0000, 6450.0000, 6600.0000, 6750.0000, 6900.0000, 7050.0000, 7200.0000, 7350.0000, 7500.0000, 7650.0000, 7800.0000, 7950.0000, 8100.0000, 8250.0000, 8400.0000, 8550.0000, 8700.0000, 8850.0000, 9000.0000, 9150.0000, 9300.0000, 9450.0000, 9600.0000, 9750.0000, 9900.0000,10050.0000,10200.0000,10350.0000,10500.0000,10650.0000,10800.0000,10950.0000,11100.0000,
  5-NOV-1996 00:02:08.00,    2.5622,  999.0000,    5.1018,    5.4876,  999.0000,  999.0000,  999.0000,  999.0000,  999.0000,   10.9156,   11.1549,   11.4678,   12.5990,   14.9306,   16.0657,   16.7914,   16.6072,  999.0000,  999.0000,   16.3269,   15.9300,   15.6901,  999.0000,   15.2689,   14.8987,   14.8362,   16.1206,   18.2890,   21.5130,   22.1211,   22.1338,   22.2278,   23.4041,   26.6971,   29.2687,   30.1369,   31.2441,   31.6758,   31.3401,   31.8834,   33.5301,   36.0132,   34.8026,   35.6492,   33.3158,   33.9749,   34.6264,   33.7859,   34.4727,   37.9826,   42.0966,  999.0000,  999.0000,  999.0000,   46.5839,   45.1994,  999.0000,  999.0000,   46.2514,   47.9270,   46.8656,   47.1336,   47.8293,  999.0000,   46.2742,
  5-NOV-1996 00:06:44.05,    3.3727,    4.5321,    5.3583,    5.5541,    6.0945,  999.0000,   10.5796,   10.9269,   10.9065,   10.8547,   10.9536,   11.3211,   14.1029,   16.2504,   16.5973,  999.0000,  999.0000,  999.0000,   16.3423,   16.2123,   14.7617,   14.1608,   15.9776,   14.7094,   14.3438,   14.1156,   14.9119,   18.5491,   21.2452,   22.1536,   22.3160,   23.2504,   24.6684,   28.0025,   31.1106,   33.5954,   33.5355,   33.6275,   33.3609,   32.8838,   34.0192,   36.9200,   38.0613,   36.0834,   34.5844,   34.4634,   34.8088,   34.1415,   34.5183,   37.3969,   41.2706,   43.6985,   44.4280,   44.5898,   45.3680,   44.6459,   45.2672,   45.4444,   45.5558,   45.8625,   46.1543,   46.9138,   46.5031,   45.8323,   45.8953,
  5-NOV-1996 00:11:18.11,    4.2744,    5.4199,    5.3794,    5.4211,  999.0000,  999.0000,  999.0000,   11.0173,   10.7619,   10.6267,   10.8082,   11.5622,  999.0000,   16.4956,   17.3294,   18.1790,   18.5342,  999.0000,  999.0000,  999.0000,  999.0000,   14.0692,   14.9126,   14.8861,   14.8941,   15.4542,   16.0330,   19.5932,   21.4964,   22.6293,   21.9330,   22.1372,   23.4032,  999.0000,  999.0000,   32.6951,   34.8080,   35.0674,   34.5773,   32.2845,   31.5514,   35.0465,   35.7281,   34.2282,   33.0628,   33.6466,   33.6287,   34.2628,   37.1231,   41.1397,   43.9620,   44.9346,   45.1729,   44.9761,   44.5803,   45.9173,   46.4574,   45.3218,   44.6903,   45.4216,   47.1236,   47.5505,   45.3536,   45.1569,   46.2589,
  5-NOV-1996 00:15:52.09,    2.5458,  999.0000,    5.0647,    5.3856,  999.0000,  999.0000,   12.3768,   11.9859,   11.0751,   10.7468,   10.9374,   12.1018,   14.2942,   15.8459,   16.4169,   16.7377,   16.4388,   16.4880,   16.4106,   15.2981,   14.9722,   15.2641,   15.7307,   15.1988,   14.8890,   15.0194,   17.3731,   21.0537,   21.7628,   21.4936,   21.5913,   21.9338,   24.3160,   25.2003,   29.1132,   30.4895,   31.3808,   33.4509,   34.8845,   33.6677,   32.8397,   33.5037,   34.9339,   34.6385,   33.3027,   33.6859,   33.5514,   35.5826,   39.2497,   42.7391,   44.7987,   45.2423,   45.7719,   45.2965,   44.8241,   46.1549,   45.5052,   45.1393,   46.2235,   46.4820,  999.0000,  999.0000,  999.0000,  999.0000,   47.0553,
  5-NOV-1996 00:20:28.42,    3.1412,    5.0900,    5.5530,    5.0380,    5.6594,  999.0000,   10.7179,   11.0277,   11.1042,   11.0491,   11.4269,   12.3882,   13.6303,   15.9457,   16.4057,   16.6996,   16.5644,   16.9795,   16.6004,   15.5309,   14.5824,   15.5062,   15.8753,   15.6217,   15.9063,   16.0338,   18.0651,   20.6106,   21.3232,   20.9337,   20.4551,   22.8929,   24.0997,   25.5591,   28.2792,   29.6075,   31.1818,   31.3126,   30.3604,   31.0383,   30.8366,   32.0499,   32.8574,   32.9935,   34.1450,   34.8732,   35.1684,   37.2960,   39.9365,   43.5142,   46.1247,   46.8443,   46.2794,   45.3918,   44.8369,   46.5800,  999.0000,  999.0000,   47.5910,   48.0882,   46.6062,   46.4232,  999.0000,  999.0000,  999.0000,
  5-NOV-1996 00:25:04.63,    4.6992,    7.2721,    8.1690,  999.0000,  999.0000,  999.0000,  999.0000,  999.0000,   11.3118,   10.8589,   10.9273,   11.5785,   12.2555,  999.0000,  999.0000,  999.0000,  999.0000,   16.1116,   15.6893,  999.0000,   14.4342,   14.0291,   14.5445,   14.7293,   15.1043,   17.0131,   18.8247,   20.5553,   20.4810,   20.5523,   20.8320,   20.9796,   22.7713,   26.1070,  999.0000,   30.4317,   31.1089,   32.3244,   32.6036,   32.7051,  999.0000,  999.0000,   34.9615,   35.4934,   33.9342,   34.8025,   35.3251,   36.7110,   39.7619,   43.0719,   45.6747,   46.5867,   45.6782,   44.3821,   44.7590,   46.0458,   46.7515,   46.7901,   48.2878,   48.2362,   47.9283,  999.0000,   47.7622,  999.0000,   47.2039,
  5-NOV-1996 00:29:38.80,    4.8787,    6.9335,    7.8768,  999.0000,  999.0000,  999.0000,  999.0000,  999.0000,  999.0000,   10.8208,   10.7748,   10.8993,  999.0000,  999.0000,  999.0000,  999.0000,  999.0000,  999.0000,  999.0000,  999.0000,   13.5755,   13.5395,   13.8012,   14.1951,   15.1450,   17.5264,   19.4005,   20.4501,   20.3297,   20.3677,   20.2342,   20.8947,   23.1549,   26.4020,   28.8581,   30.4937,   32.7070,   33.0806,   33.0327,   32.1608,   31.0551,   32.0403,   35.5238,   36.1729,   34.1779,   34.6002,   35.1381,   36.8605,   39.3703,   41.8387,   43.7282,   43.7385,  999.0000,  999.0000,   44.8360,   45.7782,   45.3545,   46.7958,  999.0000,  999.0000,   46.0279,   46.6985,   46.6752,   45.9890,   47.7073,
  5-NOV-1996 00:34:16.06,  999.0000,  999.0000,  999.0000,  999.0000,  999.0000,  999.0000,  999.0000,  999.0000,   11.0250,   10.7615,   10.5562,   10.8842,   11.3130,  999.0000,   15.6896,   16.2580,   16.1298,   16.2274,  999.0000,   13.3750,   12.3358,   12.4058,   12.6927,   14.6325,   15.1419,   16.6293,   18.8713,   20.0645,   20.1452,   20.2128,   20.5349,   22.1076,   23.4672,   26.1815,   28.4232,   30.6173,   31.5101,   31.5470,   32.1226,   32.0765,   32.0594,   32.7816,   34.8687,   34.8211,   35.0083,   35.0196,   35.7160,   37.1684,   39.4032,   41.9722,   44.5741,   44.5060,   43.8091,   43.2723,   43.9734,   45.2432,   45.5342,   46.6190,   46.4497,   45.5429,   45.9697,   46.4984,   45.8063,   46.3538,   48.6480,
  5-NOV-1996 00:38:51.58,    4.7452,  999.0000,  999.0000,  999.0000,  999.0000,  999.0000,  999.0000,  999.0000,  999.0000,   10.7172,   10.9367,   11.5340,  999.0000,  999.0000,  999.0000,   16.4837,   16.6372,   16.0069,   16.4142,  999.0000,  999.0000,   13.4550,   13.5215,   14.3000,   15.1504,   16.7313,   19.2997,   20.5107,   21.5406,   21.5340,   22.1792,   22.7657,   24.6952,   27.2710,   28.7687,   30.6656,   31.7406,   31.7269,   32.0648,   31.9719,   32.5463,   33.6936,   35.9916,   35.4618,   34.9923,   34.6847,   35.7203,  999.0000,   39.9338,   41.4017,   44.5609,   45.7701,   44.4546,   44.3638,   45.1778,   44.9336,   45.2646,   46.7489,  999.0000,   46.9841,   45.7763,   46.3266,   46.3716,   46.2081,   48.3666,
  5-NOV-1996 00:43:26.63,    3.8580,    4.9531,    5.2985,    5.3387,  999.0000,  999.0000,   10.4393,   11.0108,   10.9773,   10.9442,   11.2292,   11.6963,   12.2591,  999.0000,   16.0963,   17.3505,  999.0000,  999.0000,  999.0000,   16.3535,   15.8143,   15.6475,   15.7874,   15.1912,   16.2668,   17.5416,   19.5664,   19.6430,   19.7346,   19.5444,   22.9344,   21.5586,  999.0000,   26.8709,   26.6226,   28.5332,   30.9773,   32.0964,   32.7788,   32.0817,   33.7666,   33.8380,   36.3772,   34.3517,   33.5645,   33.9336,   36.1469,   39.0060,   40.7113,   42.2189,   43.2358,   43.5479,   43.4651,   43.8813,   44.6838,   44.8078,   45.3254,   45.4253,   45.4495,   46.2804,   45.4674,   45.4835,   45.4314,   46.4945,   49.3454,
  5-NOV-1996 00:48:03.70,    5.0942,  999.0000,  999.0000,  999.0000,  999.0000,  999.0000,  999.0000,   11.4648,   11.1641,   11.0181,   11.1853,   11.4535,   12.5236,  999.0000,  999.0000,  999.0000,  999.0000,   16.4543,   16.3586,   16.3513,  999.0000,   14.8279,   16.0994,   16.2542,   17.0554,   18.2989,   18.8624,   20.1205,   20.8958,   20.8303,   21.0956,   22.7810,   26.3977,  999.0000,  999.0000,   30.0624,   32.8494,   34.6934,   35.5246,   34.0714,   33.7568,   35.8131,   36.3036,   34.7295,   34.9603,   35.9816,   37.9652,   39.7324,   41.0804,   43.0862,   42.1819,   44.4043,   44.1329,   44.0246,   45.9023,   46.5294,   46.9160,   47.2854,   46.4140,   45.8912,   45.6931,   46.2220,   47.1323,   48.0090,   50.3236,
  5-NOV-1996 00:52:38.97,    4.8960,    5.7601,    5.4646,    5.2644,    5.3992,  999.0000,  999.0000,   10.3813,   10.6566,   10.4552,   10.9708,   10.9290,   11.5055,   12.5625,  999.0000,   16.1952,   16.6632,   16.5127,   16.3295,  999.0000,  999.0000,  999.0000,   15.0080,   16.2441,   17.0037,   18.1302,   19.8220,   20.9654,   21.8310,   22.2302,   23.2289,  999.0000,   25.6835,   31.7071,   32.3610,   31.4218,   33.2953,   34.9894,   34.7783,   33.4603,   33.5468,   35.6481,   36.2049,   34.4329,   34.5037,   35.9849,   38.4622,   40.8294,   42.8053,   43.4537,   45.5065,   45.5697,   45.3335,   45.8178,   46.5260,   46.7360,   46.8367,   47.9292,   47.7003,   47.0539,   46.7986,   48.2587,   48.0135,   49.2875,  999.0000,
  5-NOV-1996 00:57:13.91,  999.0000,  999.0000,  999.0000,  999.0000,  999.0000,  999.0000,  999.0000,    9.9792,    9.9822,    9.0602,  999.0000,  999.0000,  999.0000,  999.0000,  999.0000,  999.0000,  999.0000,  999.0000,  999.0000,  999.0000,  999.0000,   14.5691,   14.7949,   16.4956,   17.6135,   18.5495,   19.8020,   20.5458,   21.4200,   22.2829,   23.9074,   24.6621,   27.1826,   28.5014,   30.0819,   30.7072,   32.0126,   32.9765,   32.9216,   33.4930,   32.9341,   34.6017,   35.4734,   33.9141,   34.7595,   36.5833,   39.2820,   41.5773,   42.9578,   42.9910,   44.7292,   45.3374,  999.0000,  999.0000,   45.8980,   46.0584,   46.2069,   47.5011,   46.6188,   45.8899,   47.3425,   47.7384,   46.9851,   48.7679,   50.5453,
  5-NOV-1996 01:01:52.90,    4.4299,  999.0000,  999.0000,  999.0000,  999.0000,  999.0000,  999.0000,   11.0343,   11.7356,   11.4686,   10.6480,   10.8223,   11.8381,   13.1364,   13.6256,   15.6892,   16.1050,   16.3935,  999.0000,   16.1038,   15.4467,  999.0000,  999.0000,   15.3189,   16.5704,   18.0044,   19.2569,   20.3729,   20.9215,   22.2211,   23.5573,   25.9015,   28.2142,   28.1831,   29.7774,   29.8147,   31.1317,   32.5466,   32.3771,   32.1328,   32.3400,   33.7895,   35.3632,   35.2349,   36.3004,   39.3904,   41.6458,   43.3631,   43.4381,  999.0000,  999.0000,   45.1555,   43.6260,   44.1828,   45.8662,  999.0000,   45.8071,   45.4326,   46.9770,   47.3801,   46.8928,   47.5044,   46.7597,   48.3760,  999.0000,
  5-NOV-1996 01:06:29.64,    2.8074,  999.0000,  999.0000,  999.0000,  999.0000,  999.0000,  999.0000,   10.5985,   11.2540,  999.0000,   11.1273,   11.3484,  999.0000,  999.0000,  999.0000,  999.0000,   16.2591,   16.5620,   15.9491,   15.1675,  999.0000,   12.6990,  999.0000,   15.6461,   17.1411,   18.1075,   19.4704,   21.0046,   21.6009,   22.1219,   23.6602,   25.7661,   27.7835,   27.9745,   29.9436,   30.9647,   31.3007,   31.8544,   31.3837,   31.1765,   32.2509,   34.0167,   34.5645,   34.0100,   34.4688,   38.1220,   41.0145,   42.1232,   41.9979,   42.8213,   43.8841,   43.1662,   42.9315,   42.8115,   44.6293,   45.8736,   45.2357,   45.7058,   46.1561,   46.3671,   46.9967,   47.2378,   47.5981,   50.0241,   51.6492,
  5-NOV-1996 01:11:07.78,    3.9914,    5.1275,    5.4543,    5.4973,    5.9098,  999.0000,  999.0000,   10.7615,   10.6463,  999.0000,   10.7538,   10.8644,   10.8966,   11.1241,  999.0000,   15.9387,   16.4157,   16.6513,   16.0141,   15.2663,  999.0000,   11.8643,   11.9178,   14.9046,   16.5609,   18.2443,   19.5271,   20.9676,   21.2210,   21.4586,   22.2362,   24.9159,   27.7610,   28.3136,   29.9968,   31.8300,   32.4673,   32.1378,   31.2813,   31.2706,   32.8089,   34.2206,   35.1520,   34.9439,   38.3381,   39.1207,   41.7008,   41.8623,   42.1706,   44.3531,   45.0739,   43.2911,   43.5943,   43.6643,   43.9120,   44.2410,   44.4219,   46.0253,   46.1570,   46.0631,   45.4357,   46.0977,   48.4175,   50.1871,  999.0000,
  5-NOV-1996 01:15:43.04,    4.8023,    5.6406,    5.6338,    5.5205,    5.6193,  999.0000,   10.2780,   10.9491,   10.7480,   10.9708,   11.0516,   10.8829,   10.6467,  999.0000,   14.5275,   15.6239,   16.8044,   16.6005,   15.7008,   15.0872,  999.0000,   12.7767,   12.4518,   13.0939,   17.3908,   18.5577,   19.7103,   20.2305,   20.9031,   21.6005,   22.5042,   24.5491,   28.0734,   29.3524,   29.7577,   30.4999,   31.7969,   32.9420,   32.3559,   32.6127,   33.1675,   34.6263,   35.1124,   34.6583,   36.1583,   40.1727,  999.0000,   41.5262,   42.3464,   44.9070,   44.9928,   44.2003,   44.6812,  999.0000,  999.0000,   45.4649,   45.5780,   46.4636,   46.9464,   46.6798,   46.0238,   46.7714,   48.7460,   51.0504,  999.0000,
  5-NOV-1996 01:20:19.44,    4.9834,    5.5386,    5.5034,    5.5484,    6.2523,  999.0000,  999.0000,  999.0000,   10.5866,   10.7867,   10.9398,   11.0534,   11.0021,   12.4556,   15.4284,   16.3069,   16.5256,   16.7852,  999.0000,  999.0000,  999.0000,  999.0000,  999.0000,   13.8486,   15.9142,   17.9155,   18.7111,   19.8210,   20.2308,   21.3492,   23.0663,   24.9078,   27.5535,   28.6058,   29.3738,   30.6420,   32.1788,   32.4796,   31.9383,   31.3447,   32.9279,   34.6770,   34.8816,   34.6418,   35.9497,   39.4405,   41.3364,   41.4838,   42.3689,   43.7650,   43.8548,   44.3283,   45.1382,   45.4438,   45.6540,   45.1705,   44.7584,   46.0582,   47.1010,   47.7305,   46.4529,   46.5912,   48.5753,   49.9206,   52.0124,
  5-NOV-1996 01:24:54.76,    4.5173,    5.3557,    5.5791,    5.5556,  999.0000,  999.0000,   10.2532,   11.0289,   10.8794,   10.8662,   10.8389,   11.0753,   11.1505,  999.0000,  999.0000,   16.4821,   17.0043,   18.4910,  999.0000,  999.0000,  999.0000,  999.0000,   14.1167,   14.4935,   16.8541,   18.5908,   20.1471,   20.6754,   21.5620,   23.3217,   23.9338,   24.8454,   29.0622,   28.0095,   30.5834,   29.6025,   30.7711,   31.3020,   31.5881,   31.7356,   32.4999,   32.5667,   34.5663,   35.0490,   36.7343,   38.0521,   39.8633,   40.2781,   41.8620,   42.3988,   42.8948,   43.5648,   44.0290,   44.4443,   44.9987,   45.7500,   44.9959,   44.7663,   45.6266,   46.2977,   45.9171,   47.0677,   48.4998,   49.8820,  999.0000,
  5-NOV-1996 01:29:29.80,    3.7471,    4.8960,  999.0000,  999.0000,  999.0000,  999.0000,  999.0000,   10.7639,   10.9595,   10.8642,   10.2371,   10.6660,   11.3233,   12.6337,  999.0000,   16.0796,   16.3331,  999.0000,  999.0000,  999.0000,  999.0000,   15.0185,   14.9694,   17.2553,   18.2272,   20.0623,   20.6193,   20.7217,   20.7794,  999.0000,  999.0000,   25.6643,   30.0455,   31.4085,   31.6805,   30.9268,   30.1589,   30.7209,   31.4752,   32.1775,   33.7316,   34.5604,   34.4171,   33.9982,   36.0423,   38.9277,   40.7287,   40.5205,   41.4358,   41.7308,   42.7311,   43.5049,   44.1415,   44.7909,   44.3538,   45.2434,   44.1857,  999.0000,   44.3785,   46.1397,   45.7811,   46.3612,   47.0060,   49.0978,   50.5557,
  5-NOV-1996 01:34:04.96,    4.8247,    5.3050,  999.0000,  999.0000,  999.0000,  999.0000,  999.0000,   10.4907,   10.9829,   10.9750,   10.6072,   10.9122,   11.0883,   11.0411,  999.0000,  999.0000,  999.0000,  999.0000,  999.0000,  999.0000,   11.2897,   11.4085,   12.5892,  999.0000,   18.2398,   20.7543,   21.6769,   21.3843,  999.0000,   23.7025,   26.2291,   26.7839,   28.4136,   28.3514,   28.5213,   28.8966,   29.2815,   29.8518,   30.2756,   31.6721,   32.9268,   34.3391,   34.4650,   35.4691,   36.4450,   39.7044,   41.3140,   41.2183,   41.8641,   42.7401,   44.1277,   44.3992,   44.7533,   45.5585,   45.7739,   46.5749,   45.3226,   45.1573,   45.6395,   45.5409,   46.0848,   46.4208,   48.0160,   49.8960,  999.0000,
  5-NOV-1996 01:38:41.73,    5.3736,  999.0000,    5.9298,    5.9534,    5.5904,  999.0000,  999.0000,   10.6012,   10.9588,   10.9041,   10.8975,   10.9100,   10.9358,   11.0031,  999.0000,   15.9491,   16.1857,   16.7241,  999.0000,  999.0000,  999.0000,  999.0000,   14.9769,   16.6939,   19.1950,   21.0542,   22.0392,   21.4000,   21.3316,   23.1380,   25.7506,   26.3227,   27.3428,   27.5255,   26.5320,   27.3024,   29.0755,   29.9391,   30.3859,   31.4214,   33.0718,   34.5656,   34.4373,   35.7343,   38.6315,   40.2009,   40.9427,   41.8433,   42.0781,   43.2000,   45.6993,   46.0826,   45.0808,   45.1571,  999.0000,  999.0000,   45.8339,   45.1587,   44.6760,   45.6724,   45.5350,   45.6298,   47.8138,   50.6156,   51.0709,
  5-NOV-1996 01:43:19.39,    5.2897,    5.4557,    5.5344,  999.0000,  999.0000,  999.0000,  999.0000,   10.7500,   10.9889,   10.9866,   10.9670,   10.9572,   10.9652,  999.0000,  999.0000,  999.0000,   15.8723,   16.7905,  999.0000,  999.0000,  999.0000,  999.0000,  999.0000,  999.0000,   19.6953,   20.9554,   21.4120,   21.8710,   22.3207,   24.8357,   26.7971,   26.4700,   26.7450,   27.6035,   27.3634,   28.2275,   30.1148,   30.0508,   30.6428,   30.7396,   32.9617,   34.1240,   33.9897,   36.4211,   38.3176,   39.4177,   42.1125,   43.0626,   42.7805,   44.0039,   45.4542,   45.7732,  999.0000,   46.1267,   46.7764,   46.6104,   44.9618,   45.0750,   45.1414,   45.7958,   44.7246,   44.7129,  999.0000,  999.0000,  999.0000,
  5-NOV-1996 01:48:29.95,    4.5361,  999.0000,    5.4806,    5.6015,  999.0000,  999.0000,  999.0000,   10.8304,   10.9511,   10.8954,   10.9660,   10.9346,   10.8888,   10.9379,  999.0000,   15.1735,   15.1025,   15.5627,   15.8857,   16.5673,  999.0000,  999.0000,  999.0000,  999.0000,   20.0341,   21.2602,   21.6346,   22.2619,  999.0000,   25.8403,   26.1874,   25.9025,   27.2549,   27.6999,   27.1762,   28.6104,   30.1798,   30.3329,   30.3029,   31.5016,   32.7805,   33.5678,   34.5905,   37.1782,   38.9660,   40.5021,   43.0717,   42.9458,   43.4278,   45.0933,   44.3991,   44.1050,   45.0991,   45.9423,   44.4438,   44.0061,   44.6908,   45.2935,   46.0482,   46.0931,   46.0892,   46.7584,   48.9232,   51.3528,   52.1220,
  5-NOV-1996 01:53:06.26,  999.0000,  999.0000,  999.0000,    5.6363,    5.6778,  999.0000,  999.0000,   10.4448,   10.8517,   10.8922,  999.0000,  999.0000,  999.0000,  999.0000,   12.6455,   13.9607,   15.5964,  999.0000,  999.0000,  999.0000,  999.0000,  999.0000,  999.0000,   19.3250,   21.0177,   21.9430,   22.8457,   23.4215,   25.3189,   27.4552,   28.3358,   29.1750,   29.9629,   29.4127,   28.3924,   28.6874,   30.4818,   30.8853,   31.1860,   32.2427,   33.3901,   34.0321,  999.0000,   37.6239,   39.1835,   40.8054,   42.4583,   42.9231,   44.2660,   44.2757,   43.6650,  999.0000,  999.0000,   45.1969,   45.0992,   44.3213,   44.2455,   44.6075,   45.1821,   45.4199,   46.3312,   47.2791,   49.5311,   51.4453,   52.2610,
  5-NOV-1996 01:57:40.38,    4.4518,  999.0000,  999.0000,  999.0000,  999.0000,  999.0000,  999.0000,  999.0000,  999.0000,  999.0000,  999.0000,  999.0000,  999.0000,  999.0000,  999.0000,  999.0000,  999.0000,   16.8442,   18.3456,  999.0000,  999.0000,  999.0000,  999.0000,   19.4163,   20.8689,   21.4097,   22.7285,   24.4702,   26.3817,   28.7147,   30.1304,   31.4211,   31.4990,   30.9782,   28.3913,   27.6927,   29.6399,   31.0166,   32.3454,   31.9479,   32.2627,   32.8996,   35.4199,   37.9523,   38.5072,   40.7425,   41.9530,   42.5027,   43.0313,   43.8951,   44.8041,   45.2599,   45.1009,  999.0000,  999.0000,   44.8448,   45.1514,   45.4911,   45.5411,   45.8496,   46.4693,   47.9966,   50.6583,   51.3764,   52.7453,
  5-NOV-1996 02:02:16.59,    4.4026,    4.8858,  999.0000,    7.3544,    7.7320,    8.1727,  999.0000,  999.0000,  999.0000,  999.0000,  999.0000,  999.0000,  999.0000,  999.0000,  999.0000,  999.0000,   16.8568,   17.3393,  999.0000,  999.0000,  999.0000,  999.0000,  999.0000,   18.8536,   20.3038,   22.0195,   22.9068,   23.7797,   25.1624,   26.0292,   26.5134,   27.1029,   28.3935,   29.1674,   29.4100,   27.9717,   27.7361,   29.3398,   30.3828,   31.7574,   33.0109,   34.5908,   35.3443,   37.1446,   38.6403,   40.8806,   42.6391,   42.4732,   42.3363,   43.9986,   44.4756,   45.0113,   44.7168,   44.5826,   45.2190,   44.2454,   44.9101,   45.6660,   45.6112,   45.7865,   46.6850,   47.9719,   49.6647,   50.6534,   50.6639,
  5-NOV-1996 02:06:54.10,    7.5335,  999.0000,    6.1737,    5.9676,    5.9785,  999.0000,  999.0000,   10.7819,   11.2457,   11.2768,  999.0000,  999.0000,   11.0315,   10.8972,  999.0000,   12.9193,   14.5074,   15.6908,   16.8490,  999.0000,   17.2580,  999.0000,   17.1350,   19.4599,   20.1067,   22.5918,   23.7561,   24.9791,   26.4523,   27.6846,   28.2328,   28.1905,   29.2743,   30.2350,   30.5149,   30.3164,   31.3922,   33.0367,   32.8876,   32.7215,   34.6783,   36.1964,   37.1307,   38.7155,   39.8272,   41.5090,   42.9152,   42.6138,   44.0271,   45.4333,   45.0232,   46.0489,   46.8207,   46.1477,   45.5842,   45.0847,   45.9219,   46.0775,   45.5713,   46.4840,   47.0727,   48.2289,   50.4267,   51.9719,   51.9631,
  5-NOV-1996 02:11:29.96,    5.3628,    5.4558,  999.0000,    8.3120,    8.7287,    8.6674,  999.0000,   12.4833,   13.0002,   13.0639,   12.9388,   12.4407,   13.0924,  999.0000,  999.0000,  999.0000,  999.0000,  999.0000,   16.8038,   16.9266,   16.5384,   15.8435,   16.3459,   18.6810,   20.1814,   22.9115,   24.5563,   25.5432,   25.1874,   26.9304,   27.1252,   27.3210,   27.8906,   28.3885,   27.5552,   28.7417,   29.7902,   31.3100,   32.1895,   31.9886,   33.8974,   35.9834,   36.6560,   38.7914,   40.1123,   41.7164,   42.7415,   42.2458,   43.5684,   44.7570,   45.4200,   47.0254,   46.7640,   46.0980,   46.1888,   45.2031,   46.3494,   47.2885,   47.0771,   47.3941,   47.9017,   48.0516,   50.1448,   51.8517,   52.0988,
  5-NOV-1996 02:16:03.85,    5.1204,    5.5431,  999.0000,    9.3572,   10.0027,   10.5852,   10.6157,   10.7728,   10.8843,   10.7613,   10.2407,   10.2113,   11.0773,  999.0000,  999.0000,   13.3849,   13.4015,   15.1427,   17.0160,   17.4384,   16.2605,   15.1697,   16.1241,   18.4759,   20.9030,   23.3718,   24.1331,  999.0000,   24.8714,   27.2477,   26.8990,   27.2964,   28.1621,   27.8715,   27.8210,   28.6322,   28.8479,   30.5051,   31.8081,   32.6462,   33.8392,   34.9805,   35.8390,   37.3178,   39.4114,   40.5337,   40.7038,   40.0016,   42.0816,   43.1801,   44.1435,   44.7299,   45.4746,   46.0164,   44.5195,   43.9919,   44.2785,   44.9095,   46.0456,   46.7951,   47.3795,   48.4581,   50.6154,   52.3571,   52.2761,
  5-NOV-1996 02:20:37.87,    5.2869,    5.4149,    5.5640,    5.5172,    5.5003,  999.0000,  999.0000,  999.0000,  999.0000,  999.0000,  999.0000,   10.9617,   10.9396,   10.9512,  999.0000,  999.0000,  999.0000,  999.0000,   18.7420,   20.1314,   19.0903,  999.0000,  999.0000,   20.1294,   21.7735,   23.1932,   23.4725,   24.6231,   26.5656,   27.1887,   26.5015,   27.6318,   28.9648,   28.5410,   27.1271,   29.0883,   29.9313,   31.2061,   32.5496,   34.7716,   35.6196,   36.4948,   37.1059,   38.1823,   40.6528,   41.3972,   40.9500,   41.0140,   42.8525,   44.2939,   44.8310,   44.8565,   45.1578,   45.7825,   45.4905,   44.7091,   44.6707,   45.7230,   46.4216,   45.8382,   46.0520,   47.6124,   49.9989,   51.9900,   53.6707,
  5-NOV-1996 02:25:13.72,    5.6243,    5.6539,    5.5873,    5.5527,  999.0000,  999.0000,  999.0000,   10.1280,   10.7623,  999.0000,   10.7876,   10.8062,  999.0000,  999.0000,  999.0000,  999.0000,  999.0000,   16.3762,   17.0458,  999.0000,   18.0065,  999.0000,   18.1974,  999.0000,   23.0660,   24.3787,   24.2498,   24.5653,   26.6217,   27.4302,   29.0583,   28.2964,   28.2660,  999.0000,   26.8325,   30.2249,   30.6907,   30.4195,   32.2827,   34.1228,   34.5916,   36.5222,   37.2842,   38.6646,   40.8665,   42.0583,   41.6778,   41.5591,   42.3998,   44.5942,  999.0000,   45.4467,  999.0000,   46.6923,   46.2697,   46.6012,   46.1711,   45.9973,   47.5152,   46.6922,   46.5899,   48.6338,   50.0197,   52.0591,  999.0000,
  5-NOV-1996 02:29:47.65,    5.3566,    5.7555,    5.7032,    5.7776,    5.7760,    6.0738,  999.0000,   10.3731,   10.8427,   10.7945,   10.7967,   10.4663,   11.0475,  999.0000,  999.0000,  999.0000,   15.7065,   16.0377,   16.6649,   17.7708,   18.3962,   18.5933,   18.8622,   21.4971,   23.2103,   24.3890,   24.0757,   24.9857,   27.2685,   27.6363,   27.6906,   27.0030,   26.3113,   26.0601,   28.3734,   30.6307,   30.0949,   29.9840,   31.1750,   32.4961,   34.3944,   36.2007,   36.9120,   37.1911,   39.2382,   40.9946,   40.7245,  999.0000,   42.4961,   44.4325,   44.2616,   44.5893,   45.4002,   46.1725,   46.4495,  999.0000,   46.2244,  999.0000,   47.1682,   47.1035,   47.7377,   49.3570,   50.5683,   50.9086,   52.5819,
  5-NOV-1996 02:34:23.81,    5.6098,    6.0666,    6.5559,    6.4880,    6.0714,    6.5304,  999.0000,  999.0000,   10.5751,   10.7314,   10.5564,   10.6434,  999.0000,  999.0000,  999.0000,   13.8235,   14.4114,   15.7429,  999.0000,  999.0000,   17.6032,   19.1008,   20.1129,   22.9193,   24.6338,   24.6317,   25.9515,   26.8612,  999.0000,   29.0163,   29.0635,   29.2980,  999.0000,   29.9629,   29.9464,   31.8237,   31.4384,   30.2431,   31.2804,   33.1663,   35.1694,   36.7425,   36.8161,   37.5963,   38.5461,   41.2236,   41.6624,  999.0000,   43.4759,   44.4833,   43.9749,   43.9594,   44.0916,   45.7920,   46.2811,   46.5989,   45.7412,   46.3834,   46.9849,   47.5068,   48.3171,   48.4663,  999.0000,  999.0000,   52.8679,
  5-NOV-1996 02:38:59.77,    5.3064,    5.5545,    5.8534,    5.8383,    5.8967,  999.0000,  999.0000,   10.1348,   10.7821,   10.8393,   10.7861,   10.8158,   10.9194,   11.0031,   11.2049,   12.0576,   13.8809,   15.0345,  999.0000,  999.0000,  999.0000,   21.6194,   22.0121,   21.8272,   23.3272,   24.0458,   23.8851,   24.3204,   25.8447,   26.8216,   26.7814,   26.2647,   26.1704,   26.3943,   30.3924,   31.1805,   30.1321,   31.0167,   30.6467,   32.2803,   34.0053,   35.0239,   35.2710,   34.4977,   36.2098,   38.9752,   40.1397,   40.2157,   42.8233,   44.0639,   44.2776,   44.3439,   44.3280,   45.2685,   46.6640,   47.4042,   46.1740,   44.6856,   45.5248,   44.8420,   44.9849,   46.4572,   47.4142,   48.9697,  999.0000,
  5-NOV-1996 02:43:36.50,    4.9797,  999.0000,    6.3733,    7.1356,    7.9709,    8.2969,  999.0000,   10.6219,   10.8344,   10.7699,   10.4772,   10.5785,  999.0000,  999.0000,  999.0000,  999.0000,  999.0000,  999.0000,  999.0000,  999.0000,  999.0000,  999.0000,   21.4022,   22.3464,   22.6488,   23.2209,   23.7529,   23.9388,   25.5884,   27.1335,   27.8907,   27.7813,   28.2556,   28.6933,   30.2318,   30.2143,   29.3267,   30.5053,   32.5389,   34.1368,   35.3692,   36.0555,   37.1869,   37.4065,   38.3067,   40.0878,   41.4120,   41.9943,   44.5254,   45.5945,   44.7210,   43.5888,   44.1273,   45.1181,   45.8391,   46.9756,   45.4215,   45.1831,   45.4523,   44.3876,   45.3115,   47.0356,   47.3434,   49.0238,   49.9125,
  5-NOV-1996 02:48:12.71,    5.0880,    5.8297,  999.0000,    7.5217,    7.7879,    8.3066,    9.1848,   10.7472,   10.9695,   10.8165,   10.7163,   10.8755,   11.0315,   11.0644,   11.0123,   11.0947,   12.5323,   14.0770,  999.0000,  999.0000,  999.0000,  999.0000,   22.0961,   22.9579,   23.8078,   24.9757,   26.5639,   26.0143,   27.7219,   28.1974,   26.9927,   25.9581,   26.0266,   25.8088,   26.0055,   26.2861,   27.6143,   29.3952,   30.9158,   32.7264,   37.3461,   34.9823,   36.2281,   37.3318,   39.1553,   40.2458,   40.9629,   42.4734,   44.1374,   44.7175,   44.0510,   44.5417,   45.9919,   46.2346,   46.8226,   47.4284,   45.9378,   44.9482,   44.5519,   44.8772,   46.4879,   47.4883,   48.2563,   49.9425,  999.0000,
  5-NOV-1996 02:52:49.19,    5.4445,    5.5435,  999.0000,    5.7485,    5.7959,  999.0000,  999.0000,   10.0622,   10.7026,   10.6977,   10.5868,   10.8742,   11.2117,   11.3740,   11.1234,   11.5893,   12.1197,   14.3736,  999.0000,  999.0000,   22.0336,   22.7608,   22.5631,   22.9256,   24.3716,   25.6802,   26.7359,   27.9213,   28.5307,   28.6166,   28.6854,   29.9288,   30.4385,   31.4205,   32.3580,   31.3990,   30.8141,   31.5886,   33.5823,   35.4729,   36.7098,   37.1797,   37.8553,   37.9150,   39.6114,   40.5215,   41.7152,   43.9121,   45.3077,   45.1001,   44.6246,   45.4075,   46.7684,   48.4122,   48.8014,   46.8428,   45.9714,   45.8182,   45.7795,  999.0000,   46.4894,  999.0000,   49.8807,   51.1725,   52.5336,
  5-NOV-1996 02:57:23.07,    5.3643,    5.6444,    6.8831,  999.0000,  999.0000,  999.0000,   10.2584,   10.2515,   10.8821,   11.0151,   11.0875,   11.4068,   11.2842,   10.9654,   10.9383,   12.9310,   13.5632,   15.0607,  999.0000,  999.0000,  999.0000,  999.0000,  999.0000,   23.2076,   25.0166,   26.0728,   27.7274,   29.1991,   30.4366,   30.3660,   30.3605,   29.7076,   28.9679,   32.9421,   27.5041,   29.2478,  999.0000,  999.0000,   35.0675,   35.2737,   35.5019,   36.6403,   37.5762,   37.5366,   38.5975,   40.2945,   41.1679,   42.6355,   44.9262,   45.5499,   45.4036,   45.8286,   46.3597,   45.6481,   48.1118,   47.1480,   45.9508,   45.6782,   46.7684,   47.0518,   46.8651,   47.2954,   49.6596,   51.9006,   53.1513,
  5-NOV-1996 03:01:59.33,    5.0394,    5.8678,  999.0000,    7.7708,    8.7058,  999.0000,    8.2722,    9.7699,   11.3797,   11.7273,   11.1615,   10.8822,   10.8665,  999.0000,   10.8137,   10.8796,   13.3725,  999.0000,  999.0000,   20.9722,   22.8857,   23.9272,  999.0000,   25.1899,   26.5345,   27.2259,   26.9540,  999.0000,   27.6519,   28.5959,   27.1763,   26.4510,   26.6276,   28.5269,   28.9105,   29.7583,   29.6320,   30.5450,   34.3025,   34.9651,   35.2579,   36.1980,   37.9691,   38.9287,   38.8205,   40.4013,   41.9125,   43.4535,   45.3592,   45.2867,   45.4219,   46.4536,   46.6450,   48.3230,   48.4433,   46.9913,   46.9039,   46.8380,   47.4097,   47.2756,   47.0400,   48.9216,   51.6771,   53.4905,  999.0000,
  5-NOV-1996 03:06:35.35,    5.5180,    5.7253,  999.0000,  999.0000,    9.9914,   10.4277,  999.0000,   10.8248,   10.1456,   10.5109,  999.0000,  999.0000,  999.0000,  999.0000,  999.0000,  999.0000,  999.0000,  999.0000,  999.0000,  999.0000,  999.0000,   23.4447,   24.3058,   25.4220,   25.4207,   24.1416,   24.3077,   24.9156,   26.0914,   27.7051,   27.9435,   28.5194,   29.0417,   29.6175,   28.7363,   29.4196,   30.9342,   31.5265,   32.6759,   33.0253,   32.8849,   33.8486,   35.6268,   37.1456,   36.6312,   37.5169,   39.0419,   40.6251,   43.2888,   43.9690,   43.9672,   44.4829,   44.9512,  999.0000,  999.0000,   46.9020,   45.4469,   44.5873,   45.4795,   45.9356,   46.2265,   47.2994,   48.1217,   49.4279,   50.5214,
  5-NOV-1996 03:11:11.72,    5.3840,  999.0000,  999.0000,  999.0000,    8.0151,    8.2357,    8.3142,  999.0000,  999.0000,  999.0000,  999.0000,  999.0000,  999.0000,  999.0000,    9.4174,   10.1753,  999.0000,  999.0000,  999.0000,  999.0000,  999.0000,  999.0000,   25.0503,   25.7284,   25.8679,   25.1948,   24.4503,   24.7156,   26.0547,   27.3216,   28.0632,   28.7489,   29.0367,   29.9293,   30.6227,   30.7614,   30.8603,   32.1351,   33.2657,   32.8440,   33.3425,   35.3963,   37.0846,   38.7298,   37.8524,   38.9171,  999.0000,   44.0987,   45.7570,   45.4295,   44.8045,   46.1523,  999.0000,  999.0000,   49.1580,   47.2753,   46.2241,   46.8707,   46.5246,   47.2996,   48.9349,   50.0085,   50.4169,  999.0000,  999.0000,
  5-NOV-1996 03:15:45.93,    5.3581,    5.4403,    5.9852,    7.5630,    8.2669,    8.2913,  999.0000,  999.0000,  999.0000,  999.0000,   11.0491,   10.9921,   10.7800,   10.6967,  999.0000,  999.0000,  999.0000,  999.0000,  999.0000,  999.0000,   24.5956,   26.3562,   27.0252,   25.0142,   26.0308,   26.8471,   25.9958,   26.6876,   27.3478,   28.1789,   29.1292,   29.9232,   28.6442,   27.0226,   26.4954,   27.9889,   29.4218,   30.7612,   30.8902,   31.5070,   32.0152,   34.2779,   36.5948,   36.8910,   37.3605,   37.9559,   38.3881,   42.4008,   44.2519,   43.8001,   44.1863,   46.1083,   46.6097,   48.5888,   49.2362,  999.0000,  999.0000,   45.0785,   45.7755,   47.0010,   47.9633,   48.1209,   49.8452,  999.0000,   51.4647,
  5-NOV-1996 03:20:23.20,    5.5184,    5.5948,    6.4301,  999.0000,  999.0000,  999.0000,    9.4101,    9.7008,   10.3579,   10.4718,   10.6853,   10.8191,   10.8437,   11.0840,  999.0000,  999.0000,  999.0000,  999.0000,  999.0000,   20.1307,   21.3924,   22.3702,  999.0000,   24.9379,   25.9785,   27.0221,   27.5477,   27.5176,   28.4377,   29.6157,   30.1964,   30.2321,   28.3557,   28.3382,   28.8775,   30.8975,   31.0785,   31.9351,   31.7319,   32.6853,   33.8110,   36.3391,   37.9710,   37.4609,   37.3020,   37.8301,   39.6827,   42.5371,   44.2137,   45.0832,   45.6597,   45.7915,   46.3490,   47.4994,  999.0000,   48.3473,   45.7046,   45.4326,   45.8857,   47.3463,   47.0356,  999.0000,  999.0000,   51.9234,  999.0000,
  5-NOV-1996 03:25:00.97,    5.7017,    5.8936,    5.9455,  999.0000,    7.8600,    8.2283,  999.0000,    8.8739,    8.9987,    8.9758,    9.7530,    9.5157,  999.0000,    9.6443,   10.5022,  999.0000,  999.0000,  999.0000,  999.0000,  999.0000,  999.0000,  999.0000,  999.0000,   24.4420,   23.9842,   24.4367,   25.2092,   24.9741,   24.5133,   24.8827,   26.3639,   28.3066,   29.0112,   29.9732,   32.0381,   32.1471,   30.3164,   30.7702,   31.6929,   32.0125,   33.0504,   35.9624,   37.7003,   38.2118,  999.0000,  999.0000,   43.0855,   44.8197,   45.2589,   44.7200,   44.9914,   45.8348,   45.5647,  999.0000,  999.0000,  999.0000,   45.5641,   45.8887,   46.6845,   47.3004,   47.7392,   49.3117,  999.0000,   50.9509,   51.6385,
  5-NOV-1996 03:29:38.14,    7.5265,    8.1170,    7.9536,  999.0000,  999.0000,  999.0000,  999.0000,  999.0000,    9.5881,    9.3742,    8.6536,    7.6670,    7.7126,  999.0000,  999.0000,  999.0000,  999.0000,  999.0000,  999.0000,  999.0000,  999.0000,  999.0000,   26.1621,   26.7151,   26.7635,   26.2645,   25.6058,   24.5770,   24.1746,   25.2480,   26.0985,   27.5999,   28.9177,   30.2907,   30.7152,   30.3626,   30.4254,   30.2987,   31.4765,   31.7963,   32.3184,   34.1701,   35.0220,   34.7657,   34.8636,   37.7047,   41.4806,   43.9168,   44.2306,   43.4247,   44.8207,   45.9451,   45.5055,   46.2304,   45.7334,   44.1585,   44.7065,   44.8475,   45.1964,   45.0920,   45.9941,   48.2713,   49.9941,   49.9283,   51.5111,
  5-NOV-1996 03:34:14.73,    7.0361,  999.0000,    6.4959,    7.0496,  999.0000,  999.0000,   10.6146,   10.4331,  999.0000,  999.0000,  999.0000,  999.0000,    6.1415,    6.3440,    7.8768,  999.0000,  999.0000,  999.0000,  999.0000,  999.0000,  999.0000,  999.0000,  999.0000,   26.6616,   27.2739,   26.6507,   26.9432,   26.5086,   26.2256,  999.0000,   27.8947,   29.2287,   30.0136,   27.3966,   27.2824,   28.8370,   29.6409,   30.7521,   32.8621,   33.0111,   33.9983,   35.0675,   36.2483,   35.5821,   34.8144,   36.8269,  999.0000,   45.1637,   44.8876,  999.0000,   46.5836,   47.3318,   46.1381,   46.8901,   47.1012,   45.5288,   46.0783,   46.4029,   45.8493,   45.6552,   46.4756,  999.0000,  999.0000,   50.6861,   51.1321,
  5-NOV-1996 03:38:50.54,    5.5235,    5.9585,    5.7323,  999.0000,    7.9326,    8.2619,  999.0000,    9.1611,   10.4156,   10.6906,  999.0000,  999.0000,  999.0000,    9.8910,   10.6410,  999.0000,   14.0826,   16.0432,  999.0000,  999.0000,  999.0000,  999.0000,   26.7058,   27.1339,   26.8660,   27.3387,   26.5511,   26.7192,   26.3868,   28.0072,   28.5022,   28.8402,   28.1939,   26.7300,   26.0538,   27.6712,   27.9664,   28.9117,   30.7602,   32.4001,   34.3944,   36.2468,   36.7207,   35.3798,   36.3209,   39.2641,   42.5889,   43.9580,   44.5512,   45.1229,   44.9933,   45.6737,   46.1613,   47.3104,   47.8963,   46.7570,   45.8492,   45.9164,   45.0793,   46.2600,   46.4645,   48.2935,  999.0000,   51.1577,   52.4124,
  5-NOV-1996 03:43:24.60,    5.1196,    5.8055,    5.9856,    5.9737,  999.0000,  999.0000,   10.5294,   10.4396,   10.6809,   10.7727,  999.0000,    8.3760,    8.2460,  999.0000,  999.0000,  999.0000,  999.0000,  999.0000,  999.0000,  999.0000,  999.0000,  999.0000,   26.8461,   27.4031,   27.3693,   27.1272,   26.9279,   26.3486,   25.7998,   27.0694,   29.1264,   30.8780,   30.0009,   28.3702,   29.5520,   30.9268,   30.1192,   30.5405,   30.9757,   32.4281,   35.4210,   37.1702,   37.0926,   35.9128,   36.6926,   39.9405,   43.3620,   44.1917,   45.3080,   45.3192,   45.2697,   45.8081,   47.1185,   48.1020,   47.0043,   46.1772,   46.6618,   46.6202,   46.1106,  999.0000,  999.0000,  999.0000,   50.4681,  999.0000,   53.2500,
  5-NOV-1996 03:48:00.93,    5.5854,    7.1157,    7.7667,    7.7653,    8.1478,    8.2583,  999.0000,  999.0000,  999.0000,   10.6002,   10.8408,  999.0000,    8.8612,   10.0813,   11.5630,  999.0000,  999.0000,  999.0000,  999.0000,  999.0000,  999.0000,  999.0000,   27.5602,   27.4347,   26.9196,   27.8201,   26.9214,   26.5917,   27.2036,   28.1303,   29.3058,   29.2480,   29.3465,   28.9807,   28.6854,   29.1077,   30.0462,   29.8814,   31.6305,   34.6352,   36.7971,   37.2276,   36.8195,   36.6932,   38.4405,   41.1854,   43.5111,   44.8326,   44.9524,   44.1940,   44.5829,   45.9454,   47.5090,   47.0542,   45.6456,   44.9622,   44.6596,   44.8908,   46.0569,   46.5382,   48.8122,  999.0000,   49.4414,   49.6369,   52.5757,
  5-NOV-1996 03:52:37.41,    5.4425,    5.5568,    5.5344,    5.5292,  999.0000,  999.0000,   10.3211,   10.8441,  999.0000,  999.0000,  999.0000,    7.9817,    7.7237,    8.3320,  999.0000,  999.0000,  999.0000,  999.0000,  999.0000,  999.0000,  999.0000,  999.0000,  999.0000,   28.1341,   28.9106,   29.3938,   28.7370,   28.4524,   29.4507,   29.7200,   28.8145,   28.5510,   28.3665,   29.6117,   30.1763,   30.7811,   31.4683,   32.1347,   32.6605,   34.3076,   35.7047,   36.2843,   35.7553,   35.6282,   37.2166,   39.6466,   42.4791,   43.6152,   43.5395,   43.1323,   44.1100,   45.5238,   46.5186,   45.5399,   45.2791,   45.3617,   44.7861,   44.7999,   45.1289,   45.8426,   47.2748,   47.9094,   47.8558,   49.2743,   51.7891,
  5-NOV-1996 03:57:14.76,    5.1072,    5.5624,    5.4785,    5.5182,  999.0000,  999.0000,  999.0000,  999.0000,   10.5432,   10.6172,  999.0000,    9.0231,    9.3082,   10.2874,   11.0870,   15.0345,   17.3523,   19.6136,  999.0000,  999.0000,  999.0000,  999.0000,   27.5692,   28.4820,   27.7549,   27.2475,   28.6976,   29.3805,   29.6703,   30.5556,   28.6973,   28.8987,   27.8633,   27.4802,   28.0569,   28.8635,   28.9262,   30.1307,   31.2859,   32.1390,   34.4428,   34.5996,   35.6552,   36.0866,   37.0367,   39.7822,   43.1747,   44.3920,   44.2520,   44.2118,   44.8481,   46.0970,   47.3064,   46.7615,   45.6650,   45.1032,   45.3703,   45.6594,   44.8860,   46.5017,  999.0000,  999.0000,   49.1227,   50.4264,   53.5249,
  5-NOV-1996 04:01:50.34,    4.9681,    5.3263,    5.4196,  999.0000,  999.0000,  999.0000,  999.0000,  999.0000,  999.0000,  999.0000,  999.0000,  999.0000,  999.0000,    8.2335,    9.4807,  999.0000,  999.0000,  999.0000,  999.0000,  999.0000,  999.0000,  999.0000,  999.0000,   29.2201,   29.2829,   29.3166,   29.6244,   29.4959,   27.8035,   27.5261,   27.9894,   27.5311,   27.5160,   28.6899,   28.7673,   28.6269,   28.4670,   30.1391,   31.3893,   32.4787,   33.4615,   34.8624,   36.3171,   36.3962,   38.2016,   41.0869,   43.2972,   44.8449,   44.9405,   44.2493,   45.8493,   46.2662,   46.3948,   46.5203,   45.9442,   45.5156,   46.0677,   46.9237,   46.0332,   46.8964,   48.1120,  999.0000,   50.0004,   51.0640,   52.5704,
  5-NOV-1996 04:06:26.94,    3.9153,    4.7610,  999.0000,  999.0000,  999.0000,    8.6833,    8.8675,  999.0000,  999.0000,  999.0000,  999.0000,  999.0000,  999.0000,    8.9436,    9.9064,  999.0000,  999.0000,  999.0000,  999.0000,  999.0000,  999.0000,  999.0000,   28.0008,   29.1546,   29.7213,   30.2063,   30.4118,   28.3719,   28.1686,   28.2479,   28.9408,   28.3634,   28.5928,   29.3916,   29.5322,   29.5211,  999.0000,   30.1329,   31.5394,   32.5251,   33.6245,   35.1881,   36.4411,  999.0000,   38.9019,   40.0990,   43.2583,   45.0338,   45.7690,   45.9551,   45.6577,   45.4564,   46.2136,   46.7705,   46.4249,   45.9608,   46.6277,   47.6922,   47.6321,   47.3150,   48.5252,   47.1032,   47.7037,  999.0000,  999.0000,
  5-NOV-1996 04:11:07.20,    4.6716,    5.4090,    5.6363,  999.0000,  999.0000,   10.4171,   10.8710,   10.8415,   10.8943,   10.8841,   10.8105,   10.8104,   10.4330,   10.1395,   10.7493,  999.0000,  999.0000,  999.0000,  999.0000,  999.0000,  999.0000,  999.0000,  999.0000,   28.5742,   30.0921,   30.1611,   30.0844,   29.2706,   29.1938,   29.2293,   28.4758,   27.5128,   27.8742,   27.3471,   27.5777,   28.6378,   28.2251,   28.7225,   29.8120,   30.1989,   32.2560,   34.4364,   35.5026,   36.4043,   37.7290,   40.2679,   43.0829,   44.9949,   45.5702,   45.2239,   44.3166,   44.1643,   46.0519,   46.4309,   45.2185,   45.2399,   46.2496,   47.1120,   46.8645,   46.5881,   48.0590,   47.9389,   48.8485,   49.5223,   52.0977,
  5-NOV-1996 04:15:41.02,    2.7599,    4.7196,    5.4742,    5.6399,  999.0000,  999.0000,  999.0000,   10.6910,   10.8180,  999.0000,  999.0000,  999.0000,    8.6748,    8.4706,    9.2563,  999.0000,  999.0000,  999.0000,  999.0000,  999.0000,  999.0000,   26.9364,   27.9067,   28.6434,   29.3952,   28.8477,   29.1118,   29.4604,   28.9920,   28.6648,   28.8124,   29.5831,   29.5138,   29.5535,   30.2617,   30.8954,   30.0767,   29.4746,   30.2210,   31.6587,   32.5090,   33.7812,   35.2296,   36.9136,   38.5875,   39.7222,   42.2788,   46.5653,   46.3827,   45.7834,   45.6799,   45.4010,   46.7476,   47.5686,   46.4583,   45.6987,   45.7871,   46.8670,   47.6064,   47.1036,   46.7316,   47.6735,   48.1160,   50.7255,   52.6502,
  5-NOV-1996 04:20:15.14,    3.0624,    4.6648,    5.3938,    6.1538,  999.0000,   10.3697,   10.9161,  999.0000,   10.8773,   10.7764,  999.0000,  999.0000,  999.0000,  999.0000,  999.0000,  999.0000,  999.0000,  999.0000,  999.0000,  999.0000,  999.0000,  999.0000,  999.0000,   27.0068,   28.7402,   29.0926,   29.3344,   30.9250,   28.3560,   27.7067,   27.6018,   27.5846,   28.3197,   28.8787,   27.8980,   27.4006,   27.5387,   28.2920,   29.9052,   30.5531,   31.8828,   33.3002,   34.8080,   36.4993,   38.0618,  999.0000,  999.0000,   45.0568,   45.9643,   45.9167,   45.6134,   44.7930,   44.8780,   46.6251,   48.0936,   47.1696,   46.3087,   47.6420,   47.9613,   48.1057,   48.9860,   48.1382,   47.6343,   49.4971,   52.5165,
  5-NOV-1996 04:24:51.21,    4.9990,    5.3983,    5.6174,    5.7379,    5.8912,  999.0000,  999.0000,  999.0000,  999.0000,   10.6320,   10.6814,  999.0000,  999.0000,  999.0000,  999.0000,  999.0000,  999.0000,  999.0000,  999.0000,  999.0000,  999.0000,  999.0000,  999.0000,   29.0110,   28.1448,   28.4532,   27.0872,   28.0093,   27.5974,   28.7184,  999.0000,   28.6133,   28.9649,   28.1628,   27.6776,   28.5814,   28.7747,   29.8727,   31.0364,   31.7486,   32.1799,   34.1148,   36.1057,   37.3348,   39.1801,   42.0848,   44.3728,   45.5424,   46.7302,   46.5119,   44.8736,   44.3894,   46.0239,   46.2490,   46.2474,   45.4509,   45.4040,   46.6100,   47.9678,   49.0674,  999.0000,   50.4294,   50.4684,  999.0000,  999.0000,
  5-NOV-1996 04:29:26.02,    4.9096,    5.2683,    5.4697,  999.0000,  999.0000,  999.0000,  999.0000,  999.0000,  999.0000,  999.0000,   11.0727,   10.6058,  999.0000,  999.0000,  999.0000,  999.0000,  999.0000,  999.0000,  999.0000,  999.0000,  999.0000,  999.0000,  999.0000,   28.2010,   28.4176,   27.9970,   26.7672,   26.6486,   27.4842,   27.6877,  999.0000,   28.1038,   28.5201,   26.0450,   25.3284,   27.1232,   27.3334,   28.3747,   29.8723,   30.3820,   32.0084,   33.8306,   36.0123,   37.1284,   38.1816,   41.7182,   44.3510,   45.3395,   45.9833,   45.5809,   44.8435,   45.7850,   47.3270,   47.0437,   45.9697,   44.9125,   45.4387,   46.7738,   47.7631,   48.7994,   49.8283,   51.2492,  999.0000,  999.0000,  999.0000,
  5-NOV-1996 04:34:00.69,    4.5257,  999.0000,  999.0000,  999.0000,  999.0000,   10.5668,   10.4192,   10.8179,   10.9761,   10.5497,  999.0000,  999.0000,   10.7365,   10.8301,  999.0000,  999.0000,  999.0000,  999.0000,  999.0000,  999.0000,  999.0000,  999.0000,  999.0000,   26.7702,   26.4116,   25.8649,   26.2243,   26.9328,   27.9876,   28.0552,   27.1133,   27.1369,   27.8196,   25.6209,   24.8600,   25.1384,   26.6146,   28.2437,   29.8714,   30.8675,   32.2857,   35.3282,   36.9097,   37.7531,   40.4106,   43.3690,   45.5374,   45.4640,   45.2633,   46.1156,   45.7940,   45.8452,   46.6686,   47.4889,   46.8490,   44.8702,   44.6994,   46.1089,   46.7832,   48.9700,   49.3955,   51.6008,   51.5495,   51.8971,   50.7329,
  5-NOV-1996 04:38:34.98,    3.5286,    4.6505,    5.6738,    5.7628,    5.9605,  999.0000,    8.0800,    8.4103,    8.3864,    8.3059,  999.0000,   10.3552,   10.6716,  999.0000,  999.0000,  999.0000,  999.0000,  999.0000,  999.0000,  999.0000,  999.0000,  999.0000,  999.0000,  999.0000,   27.2162,   25.4058,   25.6414,   26.2919,   27.3462,   27.5102,  999.0000,   28.1894,   27.6839,   24.7122,   24.4176,   25.5473,   27.6753,   28.7756,   30.2496,   31.6089,   33.4760,   36.0277,   37.6360,   38.7087,   40.3491,   42.9378,   45.0873,   46.6492,   46.9210,  999.0000,  999.0000,   46.0703,   47.6767,   48.7459,   47.8501,  999.0000,  999.0000,  999.0000,   47.5248,   48.9141,   49.9229,  999.0000,   49.7828,   51.0359,   51.4877,
  5-NOV-1996 04:43:09.91,    5.5148,    5.5285,  999.0000,  999.0000,  999.0000,  999.0000,  999.0000,  999.0000,  999.0000,  999.0000,  999.0000,  999.0000,  999.0000,  999.0000,  999.0000,  999.0000,  999.0000,  999.0000,  999.0000,  999.0000,  999.0000,  999.0000,  999.0000,   25.4487,   25.1400,   25.4082,   26.8537,   27.5884,   27.3401,   27.5046,   28.4601,   29.3817,  999.0000,   26.2867,   24.9074,   25.8481,   27.3630,   28.1076,   30.3948,   31.4030,   33.3764,   35.5003,   36.6459,   36.8260,   38.3411,   41.6415,   44.0421,   45.9025,   46.2026,   45.7239,   45.7506,   44.7124,   45.3941,   47.1016,   47.1466,   45.8989,   45.6448,   46.4516,   47.6132,   49.1767,   50.8918,   52.0465,   51.5497,   51.3702,  999.0000,
  5-NOV-1996 04:47:46.12,    5.8946,  999.0000,    5.9241,    5.7796,  999.0000,  999.0000,  999.0000,  999.0000,  999.0000,  999.0000,  999.0000,    8.4156,    8.6969,   10.0065,  999.0000,  999.0000,  999.0000,  999.0000,  999.0000,  999.0000,  999.0000,   27.5611,   27.8061,   26.4074,   26.0444,   25.9245,   26.6328,   27.5752,   27.2796,   28.1499,   27.9903,   28.2833,   27.2302,   26.5045,   25.5641,   26.7076,   27.9693,   28.5007,   30.3322,   31.7093,   33.8798,   36.1701,   36.9836,   37.2059,   39.7919,   42.6984,   44.4143,   45.9306,   46.2470,   45.4832,   44.9999,   45.8337,   46.3732,   47.2517,   47.2689,   45.7977,   45.6506,   46.7942,   47.9219,   49.2784,  999.0000,  999.0000,   51.4715,   50.8186,  999.0000,
  5-NOV-1996 04:52:20.24,    4.0649,    5.1749,  999.0000,  999.0000,  999.0000,  999.0000,  999.0000,  999.0000,  999.0000,  999.0000,  999.0000,  999.0000,  999.0000,  999.0000,  999.0000,  999.0000,  999.0000,  999.0000,  999.0000,  999.0000,  999.0000,  999.0000,  999.0000,   27.4163,   26.1122,   25.3648,   26.2846,   27.1126,   27.8775,   28.4542,   29.2021,   28.9936,   27.4733,   27.0963,   26.4678,   26.4018,   27.4095,   28.9044,   29.9676,   32.0684,   33.9097,   35.5134,   36.8262,  999.0000,   39.7061,   41.6467,   43.3834,   45.0969,   45.2623,   45.0052,   44.3666,   44.8753,   45.9907,   46.5892,  999.0000,   45.9692,   44.8559,   46.2966,   47.9624,   49.3347,   50.9782,   51.1089,   50.8014,  999.0000,   50.6441,
  5-NOV-1996 04:56:55.66,    5.2901,    5.2013,    5.5024,  999.0000,  999.0000,  999.0000,   10.3877,   10.6924,  999.0000,  999.0000,   10.1140,   10.7163,  999.0000,  999.0000,  999.0000,  999.0000,  999.0000,  999.0000,  999.0000,  999.0000,  999.0000,  999.0000,  999.0000,   28.7387,   28.8052,   27.9100,   28.2714,  999.0000,  999.0000,   28.5739,   28.6022,   27.9780,   27.1161,   26.3045,   26.7854,   27.4371,   28.2083,   28.6012,   29.5975,   31.1472,   33.5435,   35.5495,   36.1381,   37.2059,   39.6226,   41.3285,   42.8123,   44.3403,   44.3160,   44.0871,   43.9301,   43.8580,   43.8074,   45.1011,   47.5316,  999.0000,   45.4361,   45.7020,   48.0182,   49.4934,   50.6567,   51.2790,   51.8091,   52.9543,   52.2355,
  5-NOV-1996 05:01:31.04,    5.3725,    3.8610,  999.0000,  999.0000,  999.0000,  999.0000,  999.0000,  999.0000,  999.0000,  999.0000,  999.0000,   10.5877,   10.7405,  999.0000,  999.0000,  999.0000,  999.0000,  999.0000,  999.0000,  999.0000,  999.0000,  999.0000,  999.0000,   28.5874,   28.4046,   28.8582,  999.0000,   29.1423,   28.1406,   26.7457,   25.7969,   26.3631,   26.9497,   24.4820,   27.9758,   28.1621,   28.5563,   28.9099,   29.7866,   30.9702,   33.0086,   35.6177,   36.7669,   37.7900,  999.0000,   41.5039,   42.7089,   43.2832,   43.1271,   42.8663,   43.1258,   43.4666,   42.7935,   44.2807,   46.8374,  999.0000,   46.8566,   46.2412,   47.9606,   49.7406,   50.7263,   50.9253,   51.4591,   52.9022,   53.2779,
  5-NOV-1996 05:06:06.88,    5.2792,    5.4593,    5.7268,  999.0000,  999.0000,  999.0000,  999.0000,   10.6582,   10.9088,   10.7879,  999.0000,  999.0000,  999.0000,  999.0000,  999.0000,  999.0000,  999.0000,  999.0000,  999.0000,  999.0000,  999.0000,  999.0000,  999.0000,  999.0000,  999.0000,   28.6821,   27.4925,   27.8956,   28.0204,   27.6332,   27.7200,   28.0857,   26.7615,   26.8492,   27.8466,   28.1544,   28.1258,   29.0581,   30.2764,   32.6022,   34.9610,   36.5730,   38.4335,   39.1154,   39.6881,   41.8083,   43.2999,   44.2282,   44.7285,   45.1026,   44.6129,   43.8093,   44.2096,   45.7726,   47.5525,   49.2874,   48.5746,   47.4823,   48.4393,   50.1860,   49.3594,   50.0496,   51.7107,   51.8967,   52.7896,
  5-NOV-1996 05:10:43.17,    4.9306,    5.5897,  999.0000,    7.8431,    8.1746,  999.0000,  999.0000,  999.0000,  999.0000,  999.0000,  999.0000,  999.0000,  999.0000,  999.0000,  999.0000,  999.0000,  999.0000,  999.0000,  999.0000,  999.0000,  999.0000,  999.0000,  999.0000,   28.8216,   28.7209,   28.9113,   28.0068,  999.0000,   26.9885,   26.9833,   26.3112,   25.7796,   25.8744,   26.4880,   27.9565,   27.1420,   26.6611,   27.6977,   28.5083,   30.7951,   33.0056,   34.5569,   36.2810,   37.4580,   37.8530,   40.3880,   41.8694,   42.4031,   43.1944,   43.7163,   43.7900,   42.7807,   43.6351,   45.5748,  999.0000,  999.0000,  999.0000,   46.9072,   48.0603,   50.0117,   50.0793,  999.0000,   51.8003,   53.9207,   54.5964,
  5-NOV-1996 05:15:19.43,    4.9364,    6.0064,    7.4281,    7.9647,  999.0000,  999.0000,  999.0000,  999.0000,  999.0000,  999.0000,  999.0000,  999.0000,  999.0000,  999.0000,  999.0000,  999.0000,  999.0000,  999.0000,  999.0000,  999.0000,  999.0000,  999.0000,  999.0000,  999.0000,   26.2180,   27.2868,   27.1399,   25.9896,   26.6153,   26.2527,  999.0000,  999.0000,   25.4666,   26.0434,   27.0056,   26.8320,   27.3308,   29.1114,   29.4055,   31.8341,   33.8213,  999.0000,   35.8230,   37.0004,   38.3736,   41.2145,   42.1638,   42.5294,   43.4555,   43.3891,   43.4322,   43.2356,   44.3901,   44.9504,  999.0000,  999.0000,   47.5181,   46.4918,   47.4038,   49.7162,  999.0000,   50.2149,   50.7122,   52.5454,   52.9559,
  5-NOV-1996 05:19:55.69,    4.7015,    5.1325,  999.0000,  999.0000,  999.0000,   10.1352,   10.7568,   10.4895,   10.6567,  999.0000,  999.0000,  999.0000,  999.0000,  999.0000,  999.0000,  999.0000,  999.0000,  999.0000,  999.0000,  999.0000,  999.0000,  999.0000,  999.0000,   27.7935,   26.2697,   25.6347,   25.6311,   25.8809,   26.2925,   26.3484,   26.6532,   26.6983,   26.2299,   27.1316,   27.8550,   27.8923,   28.4619,   30.0385,   30.3153,   31.7653,  999.0000,  999.0000,  999.0000,   35.9655,   37.6163,   40.3729,   42.1580,   43.1771,   43.0615,   42.7221,   43.2112,   43.1853,   44.2786,   44.7356,   45.0920,   47.1544,   46.9382,   47.1564,   48.4905,   49.7902,   49.4823,   49.7132,   51.1570,   51.9809,   51.5557,
  5-NOV-1996 05:24:32.42,    3.3743,    3.7196,  999.0000,  999.0000,  999.0000,  999.0000,  999.0000,    8.1567,    8.2961,    8.3668,  999.0000,  999.0000,  999.0000,  999.0000,  999.0000,  999.0000,  999.0000,  999.0000,  999.0000,  999.0000,  999.0000,  999.0000,  999.0000,   27.1898,   26.7903,   25.3766,   25.9493,   25.3210,   25.7861,   26.4937,   26.9622,   27.0283,   27.0794,   27.5270,   27.4406,   28.1421,   29.2254,   30.3175,   30.6413,  999.0000,  999.0000,   35.5234,   35.2428,   36.6300,   38.5653,   40.9679,   42.6443,   43.1532,   43.2550,   43.3238,   43.2336,   43.1844,   44.2323,   44.5222,   45.3930,   46.6771,   46.7534,   47.5112,   49.4103,   49.5062,   49.5016,   51.5989,   52.5687,   51.8816,   50.9167,
  5-NOV-1996 05:29:08.76,    2.7531,    3.6988,    5.2027,    5.6618,  999.0000,  999.0000,  999.0000,  999.0000,  999.0000,  999.0000,  999.0000,  999.0000,  999.0000,  999.0000,  999.0000,  999.0000,  999.0000,  999.0000,  999.0000,  999.0000,  999.0000,  999.0000,  999.0000,   26.1449,   26.2144,  999.0000,   25.6864,   25.4492,   25.8217,   26.3333,   26.5127,   26.9914,   27.7526,   28.1530,   28.4128,   29.2452,   28.8482,   28.9106,   30.2423,   31.5746,   32.5033,   34.3437,   35.0841,   35.6698,   37.9343,   40.8056,   42.3800,   42.6158,   43.0980,   43.0044,   42.4216,   42.6789,   42.8126,   43.9267,   45.8409,   46.2248,   46.1916,   47.5474,  999.0000,  999.0000,   49.5823,   50.8750,   51.1922,   50.9347,   51.4094,
  5-NOV-1996 05:33:42.85,    3.0916,    3.1766,  999.0000,  999.0000,  999.0000,  999.0000,    8.1927,    8.2404,  999.0000,  999.0000,  999.0000,  999.0000,  999.0000,  999.0000,  999.0000,  999.0000,  999.0000,  999.0000,  999.0000,  999.0000,  999.0000,   26.1688,   26.7292,   27.4730,   26.1829,   24.5271,   23.6151,   23.8455,   24.0062,   23.8515,   25.8684,   26.7749,   26.9261,   27.4390,   27.7343,   29.0993,   30.6624,   30.9126,   31.1664,   32.6203,   35.2332,   36.4076,  999.0000,   37.8197,   40.4230,   42.7556,   43.6730,   43.6830,   43.1808,   42.3708,   42.8695,   43.7474,   44.2051,   45.6014,   46.4922,   47.5287,   46.6961,  999.0000,  999.0000,   52.4126,  999.0000,   50.0902,   52.0858,   52.4952,  999.0000,
  5-NOV-1996 05:38:19.13,    4.6743,    5.0074,    5.6076,  999.0000,  999.0000,    8.1656,    9.5332,  999.0000,   10.7205,   11.1573,  999.0000,  999.0000,  999.0000,  999.0000,  999.0000,  999.0000,  999.0000,  999.0000,  999.0000,  999.0000,  999.0000,  999.0000,   28.6408,   27.7725,   27.3310,   26.6225,   25.5236,   26.5858,   27.3032,   26.5840,   27.1331,   27.2163,   26.7537,   27.1449,   28.0792,   28.9767,  999.0000,   29.7392,   31.3888,   33.1183,   34.0778,   33.9423,   34.2700,   36.7633,   39.4048,   42.2362,   43.2420,   42.8121,  999.0000,  999.0000,   43.5622,   43.3601,   43.7239,   44.8696,   45.2163,   46.0668,   45.6700,   46.6737,  999.0000,   47.8097,   48.0691,   50.1208,   50.6675,  999.0000,   50.6507,
  5-NOV-1996 05:42:55.91,    3.1780,    3.0101,  999.0000,  999.0000,  999.0000,  999.0000,  999.0000,  999.0000,  999.0000,  999.0000,  999.0000,  999.0000,  999.0000,  999.0000,  999.0000,  999.0000,  999.0000,  999.0000,  999.0000,  999.0000,  999.0000,  999.0000,  999.0000,   28.7071,   27.7911,   27.7103,   27.3232,   26.9204,   26.3799,   26.9345,   27.9031,   28.3603,   27.4036,   27.4577,   27.5133,  999.0000,   27.8964,   27.8233,   29.6612,   31.8104,   32.5007,   33.6942,   34.5807,   35.3601,   38.2864,   40.8624,   42.6207,   42.6899,  999.0000,  999.0000,   42.6400,   42.9960,   43.0183,   43.8639,   44.4739,   46.0297,   46.8404,   47.6534,   49.6376,  999.0000,   48.7815,   48.9405,   49.4645,   49.4613,   48.5774,
  5-NOV-1996 05:47:31.84,  999.0000,  999.0000,    7.1979,    7.6650,    8.0693,    8.1774,    8.1790,    8.1729,    8.1790,  999.0000,  999.0000,  999.0000,  999.0000,  999.0000,  999.0000,  999.0000,  999.0000,  999.0000,  999.0000,  999.0000,  999.0000,  999.0000,   29.6386,   29.4237,   28.2619,   28.3428,   27.8820,   27.1021,   26.4687,   26.6701,   27.3198,   27.4383,   27.2714,   27.9871,   28.1237,   27.7897,   27.7229,   28.9244,   30.2717,   31.5435,   32.4199,   33.9769,   35.3291,   36.9573,   39.0009,   41.8896,   43.1305,   42.9962,   43.4322,   43.8468,   43.3233,   43.5375,   43.7735,   44.4165,   45.4282,   46.5704,   47.3456,   48.8911,  999.0000,   48.9871,   49.4078,   50.4739,   51.4510,   50.1064,   49.2288,
  5-NOV-1996 05:52:06.72,    5.6796,    5.6277,    5.2611,    5.4054,  999.0000,  999.0000,  999.0000,  999.0000,  999.0000,  999.0000,  999.0000,  999.0000,  999.0000,  999.0000,  999.0000,  999.0000,  999.0000,  999.0000,  999.0000,  999.0000,  999.0000,   30.6702,   30.7325,   28.7087,   28.1094,   28.0661,   28.5902,   28.3518,   28.5445,   27.8870,   28.8477,   29.3831,   28.9737,   28.5303,   28.0255,   27.7786,   28.1992,   28.7446,   29.6496,   30.9549,   30.4657,   30.6261,   32.6653,   35.1932,   35.9828,   37.5096,   39.3265,   40.3366,   41.1779,   41.7379,   41.8505,   42.2895,   42.6432,   43.1214,   44.3686,   45.3532,   45.7421,   47.0209,  999.0000,   47.2205,   48.2444,   49.2678,   49.1888,   50.2089,   50.7517,
  5-NOV-1996 05:56:43.71,  999.0000,  999.0000,    3.9919,    4.7948,  999.0000,  999.0000,  999.0000,  999.0000,  999.0000,  999.0000,  999.0000,  999.0000,  999.0000,  999.0000,  999.0000,  999.0000,  999.0000,  999.0000,  999.0000,  999.0000,  999.0000,   31.1080,   30.8404,   30.5849,   29.7306,   29.7110,   29.9579,   29.4042,   29.0423,   27.9315,   27.9162,   28.2702,   28.3566,   28.0043,   27.1488,   26.9615,   26.8984,  999.0000,  999.0000,   29.6945,   31.3624,   32.7153,   34.6210,   36.7757,   38.5737,   39.6020,   40.6964,   40.9923,   41.2235,   42.2568,   43.0617,   43.1184,   43.3095,   43.8727,   45.1046,   46.0055,   46.4272,   46.6261,   46.2208,   46.6859,   48.5193,   48.1722,   48.2705,   49.2941,   49.6103,
  5-NOV-1996 06:01:17.79,  999.0000,  999.0000,  999.0000,  999.0000,  999.0000,  999.0000,  999.0000,  999.0000,  999.0000,  999.0000,  999.0000,  999.0000,  999.0000,  999.0000,  999.0000,  999.0000,  999.0000,  999.0000,  999.0000,  999.0000,  999.0000,  999.0000,  999.0000,   31.4198,   31.2950,   30.9089,   30.9806,   29.0172,   28.7480,   28.5511,   27.4192,   27.5220,   26.4797,   25.1687,   24.8992,   25.4149,   26.2304,   28.5363,   30.4389,   31.1056,   32.4400,   33.9106,   35.3720,   37.4739,   39.3582,   40.6537,   41.5411,   41.8226,   42.5181,   43.1123,   43.1353,   43.3735,   43.4178,   43.7554,   45.2306,   45.9094,   45.7451,   46.7229,   46.8584,   47.6817,   48.9799,   48.0251,   48.9516,   49.7103,   49.0849,
  5-NOV-1996 06:05:55.19,    5.5867,  999.0000,  999.0000,  999.0000,  999.0000,  999.0000,  999.0000,  999.0000,  999.0000,  999.0000,  999.0000,  999.0000,  999.0000,  999.0000,  999.0000,  999.0000,  999.0000,  999.0000,  999.0000,  999.0000,  999.0000,  999.0000,  999.0000,   30.8158,   30.3641,   30.1409,   30.3885,   28.2520,   27.9808,   27.1734,   26.2348,   25.5144,   25.0498,   24.8484,   25.4084,   26.5165,   27.2750,   28.1299,   29.2714,   30.7963,   33.1001,   34.7794,   36.5126,   38.7728,   40.2021,   40.2223,   41.6905,   42.1047,   41.9209,   42.9998,   42.5071,   42.3589,   43.9416,   43.9942,   44.1585,   45.3696,   45.8482,   46.7722,   46.7622,   47.7177,   48.5395,   47.5751,   48.0175,   48.2093,   48.0840,
  5-NOV-1996 06:10:31.61,    5.0643,    5.4326,    4.7230,    4.4786,    5.3097,  999.0000,  999.0000,  999.0000,  999.0000,  999.0000,  999.0000,  999.0000,  999.0000,  999.0000,  999.0000,  999.0000,  999.0000,  999.0000,  999.0000,  999.0000,  999.0000,   27.1653,   28.2648,   30.5405,   31.0092,   30.3738,   29.5081,   28.7831,   27.7810,   26.8696,   26.2503,   26.1627,   26.1729,   25.4441,   25.4018,   26.2923,   27.8175,   29.1060,   29.6561,   31.6146,   34.1238,   35.2501,   36.6355,   39.0854,   40.0420,   41.2287,   42.1572,  999.0000,  999.0000,   42.8161,   43.4451,   44.5488,   44.2240,   43.8133,   44.7266,   45.0934,   46.1932,   46.0350,   46.9494,   48.6363,   47.9578,   48.9385,   48.6783,   47.7432,   47.2006,
  5-NOV-1996 06:15:05.58,    1.9249,  999.0000,  999.0000,  999.0000,  999.0000,  999.0000,  999.0000,  999.0000,  999.0000,  999.0000,  999.0000,  999.0000,  999.0000,  999.0000,  999.0000,  999.0000,  999.0000,  999.0000,  999.0000,  999.0000,  999.0000,  999.0000,  999.0000,   29.3657,   29.7676,   29.2213,   28.3544,   26.8321,   26.2962,   26.7858,   26.7995,   26.7927,   26.0764,   25.7596,   26.1341,   26.9450,   27.7427,   28.4112,   30.6187,   32.7646,   33.0806,   33.3987,   36.0413,   38.3773,   39.2031,   40.8284,   40.9258,   41.1090,   41.3588,   42.4518,   42.7390,   42.9685,   43.7945,   44.3963,   45.4856,   45.2828,   45.2712,   45.3238,   46.3871,   48.2782,   47.7461,   48.1306,   48.2392,   48.5406,   46.8109,
  5-NOV-1996 06:19:41.39,    3.8838,    3.9398,    5.2032,  999.0000,  999.0000,  999.0000,  999.0000,  999.0000,  999.0000,  999.0000,  999.0000,  999.0000,  999.0000,  999.0000,  999.0000,  999.0000,  999.0000,  999.0000,  999.0000,  999.0000,  999.0000,  999.0000,  999.0000,  999.0000,   29.8007,   28.5175,   27.6819,   26.5667,   27.1385,   27.8617,   28.1428,   25.9781,   26.9998,   26.3335,   26.3833,   26.3673,   26.2962,   27.9992,   30.6605,   32.5817,   32.8389,   34.3414,   36.1106,   37.9956,   38.7388,   39.8335,   40.0947,   40.2167,   41.7342,   42.2437,   42.1938,   43.7658,   44.5555,   45.8559,   45.8255,   45.6016,   45.9521,   46.1299,   46.8963,   48.5978,   49.2766,   48.4253,   48.7309,   48.7560,   47.8106,
  5-NOV-1996 06:24:15.27,    3.0957,    2.8894,  999.0000,  999.0000,  999.0000,  999.0000,  999.0000,  999.0000,  999.0000,  999.0000,  999.0000,  999.0000,  999.0000,  999.0000,  999.0000,  999.0000,  999.0000,  999.0000,  999.0000,  999.0000,  999.0000,  999.0000,  999.0000,   28.4921,   29.0133,   27.9686,   28.3193,   28.1722,   28.1627,   27.2353,   26.0966,   25.3627,   26.5264,   27.5894,   27.7469,   26.3918,   25.9451,   27.4236,   30.1642,   32.1986,   32.9985,   34.0923,   35.8507,   37.9224,   38.6492,   38.2895,   39.2196,   40.2788,   41.8599,   42.4410,   42.9301,   43.8383,   44.5956,   45.2009,   45.5872,   45.7424,   45.4604,   45.6672,   46.2342,   47.4118,   47.0823,   46.0429,   47.2018,   48.5242,   48.5912,
  5-NOV-1996 06:28:48.92,    4.4298,    4.3674,    4.7324,  999.0000,  999.0000,    7.8995,    8.1865,  999.0000,  999.0000,  999.0000,  999.0000,  999.0000,  999.0000,  999.0000,  999.0000,  999.0000,  999.0000,  999.0000,  999.0000,  999.0000,  999.0000,  999.0000,   27.2896,   27.5332,   28.3142,   28.4927,   27.5259,   27.6755,   27.7329,   25.0609,   26.9341,   25.5218,   26.0299,   28.1369,   28.2549,   26.0347,   26.4094,   28.3825,   31.2064,   33.3310,   33.6707,   34.5819,   37.1944,   38.0445,   38.9497,  999.0000,   40.1995,   40.5304,   41.7696,   43.0274,   43.4351,   44.7776,   45.6897,   44.9800,   44.9685,   45.2484,   45.4399,   45.8412,   46.2830,   46.5579,   46.2376,   46.2128,   46.8149,   47.3135,   47.9093,
  5-NOV-1996 06:33:23.11,    1.5731,    2.3049,  999.0000,  999.0000,  999.0000,  999.0000,  999.0000,  999.0000,  999.0000,  999.0000,  999.0000,  999.0000,  999.0000,  999.0000,  999.0000,  999.0000,  999.0000,  999.0000,  999.0000,  999.0000,  999.0000,   28.1993,   28.4220,   27.8056,   27.7426,   27.1994,   27.1219,   26.8088,   26.2329,   25.5510,   25.9233,   26.0529,   25.7422,   26.5262,   25.7083,   26.4154,   26.8536,   28.9986,   31.4499,   33.0450,   32.9571,   34.3180,  999.0000,   38.1287,   37.4594,   38.0367,   39.1805,  999.0000,  999.0000,   41.4207,   42.2053,   43.1686,   44.2545,   45.4115,   44.6937,   45.0215,   45.3836,   45.5370,   46.8945,   47.9631,  999.0000,   46.8339,   47.0039,   46.3667,   46.9495,
  5-NOV-1996 06:37:59.35,    5.1284,  999.0000,  999.0000,  999.0000,  999.0000,  999.0000,  999.0000,  999.0000,  999.0000,  999.0000,  999.0000,  999.0000,  999.0000,  999.0000,  999.0000,  999.0000,  999.0000,  999.0000,  999.0000,  999.0000,  999.0000,  999.0000,   28.5197,   26.0626,   25.0208,   25.1970,   26.6551,   27.8982,   28.0705,   27.6436,   26.6514,   26.9060,   27.2993,   26.5031,   26.6818,   27.6266,   28.3250,   29.8670,   32.1723,   33.5639,  999.0000,   35.1853,   38.1663,   38.7888,   37.6705,   39.1739,   39.4745,   40.3322,   41.7788,   42.2259,   43.1487,   43.4459,   43.9530,   44.9361,   45.0857,   45.2636,   44.5882,  999.0000,  999.0000,   46.6545,   46.5028,   47.1084,   46.9330,   47.1639,   45.9880,
  5-NOV-1996 06:42:33.29,  999.0000,  999.0000,  999.0000,  999.0000,    7.6528,    8.0381,    8.1146,    8.1740,  999.0000,  999.0000,  999.0000,  999.0000,  999.0000,  999.0000,  999.0000,  999.0000,  999.0000,  999.0000,  999.0000,  999.0000,  999.0000,  999.0000,  999.0000,   25.7941,   26.1860,   25.8370,   26.5361,   26.9833,   26.1997,   26.0497,   26.5980,   26.3519,   26.5738,   26.0383,   25.8941,   26.9018,  999.0000,   30.2798,   31.9949,   32.7668,   32.9124,   35.3313,   36.5598,   36.3755,   37.5442,   38.7495,  999.0000,  999.0000,   41.3445,   42.2249,   43.2244,   44.2035,   44.8953,   44.5614,   43.7976,   44.3514,   43.8088,   43.7871,  999.0000,   45.6061,   46.1807,   46.4279,   46.5741,   47.6499,   48.7611,
  5-NOV-1996 06:47:09.42,    3.6850,  999.0000,  999.0000,  999.0000,  999.0000,  999.0000,    8.0613,    8.2257,  999.0000,  999.0000,  999.0000,  999.0000,  999.0000,  999.0000,  999.0000,  999.0000,  999.0000,  999.0000,  999.0000,  999.0000,  999.0000,  999.0000,  999.0000,   25.3599,   25.9484,   25.5796,   25.4044,   25.1357,   25.3515,   26.0740,   25.9901,   25.7740,   26.4920,   26.1733,  999.0000,  999.0000,  999.0000,  999.0000,  999.0000,   32.0151,   32.4453,   35.1267,   36.8567,   37.6640,   38.0021,   38.4036,   39.6255,   40.7663,   41.5035,   42.4779,   43.6680,   44.6292,   45.3994,   44.7455,   44.1456,   44.0752,   43.4376,   44.6779,   45.6066,  999.0000,   45.9854,   45.6311,   45.5727,   46.5373,   48.1196,
  5-NOV-1996 06:51:44.16,    2.9563,    3.8777,  999.0000,    6.3828,    7.6338,    8.1014,    8.1545,  999.0000,  999.0000,  999.0000,  999.0000,  999.0000,  999.0000,  999.0000,  999.0000,  999.0000,  999.0000,  999.0000,  999.0000,  999.0000,   26.4796,   25.8792,   24.7063,   25.5934,   25.4733,   26.1427,   26.7586,   26.6952,   26.9091,   26.1511,   25.4099,   25.7786,   25.9503,   26.0714,   27.2275,   28.7786,   30.1319,   30.4849,   31.7529,   32.2416,   33.2026,   35.7751,   37.6123,   38.4270,   39.0179,   39.1730,  999.0000,  999.0000,   40.9221,   41.6482,   43.8651,   45.1449,   45.3818,   44.6285,   44.4621,   44.3206,   43.9752,   44.7544,   46.4070,   47.7816,   47.3732,   45.8253,   45.4884,   47.1180,   47.7954,
  5-NOV-1996 06:56:18.46,  999.0000,    4.7564,    5.5027,  999.0000,    7.8070,    8.1628,    8.1646,    8.1847,  999.0000,  999.0000,  999.0000,  999.0000,  999.0000,  999.0000,  999.0000,  999.0000,  999.0000,  999.0000,  999.0000,  999.0000,  999.0000,  999.0000,  999.0000,   24.9075,   25.1267,   25.1672,   25.2658,   25.9318,   25.9788,   26.8639,   26.4837,   26.5687,   25.7208,   25.7985,   26.4512,   27.4884,   29.1490,   29.4063,  999.0000,  999.0000,   33.4337,   35.5751,   36.0669,   37.8357,   38.1635,   37.7516,   38.2119,   39.1237,   40.1061,   41.3694,   43.3839,   44.1297,   44.4320,   44.2973,   44.1797,   43.4024,   42.7888,   43.4006,   45.6912,   46.4867,   45.7340,   46.1052,   46.9001,   47.3224,   48.0008,
  5-NOV-1996 07:00:52.73,    2.9501,    2.9135,  999.0000,  999.0000,    7.6973,    8.2130,    8.2310,  999.0000,  999.0000,  999.0000,  999.0000,  999.0000,  999.0000,  999.0000,  999.0000,  999.0000,  999.0000,  999.0000,  999.0000,  999.0000,  999.0000,  999.0000,  999.0000,   24.8353,   25.6175,   25.9206,   26.5621,   26.3114,   26.5926,   27.3012,   26.7994,   26.2416,   26.3324,   27.1849,   27.1935,   28.0951,   29.9086,   30.6385,   31.4062,   32.7805,   34.2085,   36.5075,   37.8631,   39.2991,   39.3795,   39.9412,   40.0290,   40.5428,   41.4992,   42.4849,   43.8628,   45.2667,   45.3885,   44.9975,   44.8856,   44.1871,   44.7370,  999.0000,  999.0000,  999.0000,   46.6234,   46.0685,  999.0000,   47.4813,   48.7475,
  5-NOV-1996 07:05:27.01,    2.6759,    2.8767,  999.0000,  999.0000,    7.6730,    8.3034,    8.4014,  999.0000,  999.0000,  999.0000,  999.0000,  999.0000,  999.0000,  999.0000,  999.0000,  999.0000,  999.0000,  999.0000,  999.0000,  999.0000,  999.0000,   24.2946,   23.8185,   24.0931,   25.9010,   27.1703,   26.1704,   25.8054,   26.1220,   26.4312,   25.7021,   26.6042,   25.9742,   26.2335,   26.6558,   27.4124,   29.1277,   30.1748,   31.6337,   32.6297,   34.1081,   36.2002,   37.6625,   38.5512,   39.0788,   39.4118,   40.2067,   40.6257,   40.9218,   42.2423,   43.2327,   44.0799,   44.5099,   44.2845,   44.6109,   44.3848,   43.5304,   43.7327,   44.7546,   45.8436,   46.7892,   45.7730,   45.5641,   46.8115,   48.3777,
  5-NOV-1996 07:10:02.68,    3.1605,    3.1075,    4.7536,    5.9782,    7.5805,  999.0000,  999.0000,  999.0000,  999.0000,  999.0000,  999.0000,  999.0000,  999.0000,  999.0000,  999.0000,  999.0000,  999.0000,  999.0000,  999.0000,  999.0000,  999.0000,  999.0000,  999.0000,   24.2245,   25.3942,   26.2989,   26.5999,   27.0146,   26.7868,   27.4585,   26.8951,   25.7711,   25.4288,   26.3482,   27.0247,   26.9446,   27.6181,   29.2574,   31.3636,   32.5520,   33.9111,   35.9802,   37.6491,   39.0792,   39.0815,   39.5096,   40.9258,   41.2770,   40.9333,   41.7754,   43.7699,   43.8004,   43.8261,   44.1380,   43.8848,   43.8702,   44.1853,   44.6318,   45.9595,  999.0000,  999.0000,  999.0000,   46.7040,   47.6969,   48.4543,
  5-NOV-1996 07:14:36.43,    3.5512,    3.2291,    3.9840,    5.2208,  999.0000,  999.0000,  999.0000,    8.2675,    8.2243,  999.0000,  999.0000,  999.0000,  999.0000,  999.0000,  999.0000,  999.0000,  999.0000,  999.0000,  999.0000,  999.0000,  999.0000,  999.0000,  999.0000,   24.0647,   24.7642,   26.3245,  999.0000,   27.4901,   27.3306,   27.7287,   27.8317,   26.5850,   26.0609,   26.5170,   27.0573,   27.6988,   27.5639,   28.8395,   31.2740,   32.3797,   34.0542,   35.2035,   36.1286,   38.7121,   39.7390,   39.2957,   40.2455,   40.7424,   40.0423,   40.4962,   41.8052,   43.1605,   44.4730,   44.9567,   43.8498,   43.5688,   44.2613,   45.1398,   46.5001,   45.7984,   45.0560,   45.4131,   46.7509,   48.2523,   47.9205,
  5-NOV-1996 07:19:10.23,    3.2669,    3.0441,    2.8818,  999.0000,  999.0000,  999.0000,  999.0000,  999.0000,  999.0000,  999.0000,  999.0000,  999.0000,  999.0000,  999.0000,  999.0000,  999.0000,  999.0000,  999.0000,  999.0000,  999.0000,  999.0000,  999.0000,  999.0000,   23.9665,   24.0740,   26.3804,   26.6220,   27.1918,   27.5288,   27.3565,   27.0973,   26.4886,   26.6568,   27.4086,   28.5156,   29.1589,   29.3341,   30.5451,   31.9075,   33.7376,   34.9038,   35.2218,   37.0056,   38.9251,   39.5062,   39.1463,   39.5614,   39.8225,   40.1769,   40.5189,   41.6406,   42.2860,   43.3485,   44.7414,   44.5723,   44.0103,   44.1312,   45.1676,   46.5691,  999.0000,  999.0000,  999.0000,  999.0000,  999.0000,  999.0000,
  5-NOV-1996 07:23:44.17,    2.9180,    2.8187,  999.0000,  999.0000,  999.0000,  999.0000,  999.0000,  999.0000,  999.0000,  999.0000,  999.0000,  999.0000,  999.0000,  999.0000,  999.0000,  999.0000,  999.0000,  999.0000,  999.0000,  999.0000,  999.0000,  999.0000,  999.0000,   22.1378,   23.8130,   26.5414,   27.2912,   27.0785,   27.7251,   27.8286,   28.0455,   27.6338,   27.1112,   27.5818,   28.4778,   29.4198,   30.1970,   31.4106,   33.1386,   34.8384,   36.0929,   36.2212,   38.5432,   39.4413,   39.7056,   39.7336,   39.8524,   40.3848,   40.7207,   41.0656,   41.9419,   43.0796,   43.7814,   44.3843,   44.7087,   44.2906,   44.6846,   46.3000,   46.6150,   46.1073,   46.3589,   47.2653,   47.7932,   48.1571,  999.0000,
  5-NOV-1996 07:28:18.42,    3.0368,    3.1694,    3.3876,  999.0000,  999.0000,  999.0000,    7.8674,    8.1023,    8.1879,  999.0000,  999.0000,  999.0000,  999.0000,  999.0000,  999.0000,  999.0000,  999.0000,  999.0000,  999.0000,  999.0000,  999.0000,  999.0000,  999.0000,   22.8111,   24.1678,   26.5423,   27.3368,   28.3534,   28.3928,   28.7298,   29.0203,   28.4398,   27.5052,   26.9836,  999.0000,   29.8535,   29.7996,   31.1757,   33.2405,   35.1416,   36.3716,   35.9271,   38.2436,   39.7617,   40.6307,  999.0000,   39.9377,   40.1772,   40.2751,   41.5827,   42.9575,   44.0347,   44.1035,   44.1060,   44.7494,   44.7698,   45.4614,   45.4796,   45.0631,   45.5790,   46.1052,   47.4073,   46.4920,   46.1638,   48.3082,
  5-NOV-1996 07:32:52.63,    4.4612,    4.9961,    5.2877,    5.4031,  999.0000,  999.0000,  999.0000,  999.0000,  999.0000,  999.0000,  999.0000,  999.0000,  999.0000,  999.0000,  999.0000,  999.0000,  999.0000,  999.0000,  999.0000,  999.0000,  999.0000,  999.0000,  999.0000,   22.7895,   24.3023,   26.0072,   26.2121,  999.0000,   27.3920,   27.1775,   26.9136,   26.5953,   26.9392,   26.8899,   28.2579,   29.5811,   30.5236,   32.0492,   34.1730,   35.6736,   37.0223,  999.0000,   38.6123,   39.3212,   39.2417,   39.2906,   40.1905,   40.0688,   40.8205,   42.1430,   42.7169,   43.6362,   43.6282,   43.3256,   44.0746,   44.7381,   45.6062,   45.0485,   45.9286,   46.3366,  999.0000,   46.2095,  999.0000,   46.3949,   47.5435,
  5-NOV-1996 07:37:26.47,    3.4290,    4.0821,    4.9139,    5.4273,  999.0000,  999.0000,  999.0000,  999.0000,  999.0000,  999.0000,  999.0000,  999.0000,  999.0000,  999.0000,  999.0000,  999.0000,  999.0000,  999.0000,  999.0000,  999.0000,  999.0000,  999.0000,  999.0000,   22.6127,   22.9739,   25.0021,   26.2044,   26.7198,   25.9513,   25.9166,   26.0111,   26.3019,   25.8631,   26.7485,   28.3103,   28.9615,   30.9492,   33.2699,   34.9636,   36.5324,  999.0000,   37.6866,   38.3086,   38.4961,   38.3688,   39.5369,   39.7373,   40.2067,   41.3398,   42.1647,   42.9976,   44.1212,   44.6242,   44.4103,   43.9047,   44.0922,   45.4034,   45.8558,   45.9882,   44.7397,   45.1947,   46.7215,   46.0036,  999.0000,   47.5668,
  5-NOV-1996 07:42:02.26,    5.2292,  999.0000,  999.0000,  999.0000,  999.0000,  999.0000,  999.0000,    8.6254,    9.8077,  999.0000,  999.0000,  999.0000,  999.0000,  999.0000,  999.0000,  999.0000,  999.0000,  999.0000,  999.0000,  999.0000,  999.0000,  999.0000,  999.0000,   23.2097,   24.2244,   24.8096,   26.3911,   26.7031,   26.3242,   25.7832,   24.9861,   24.9072,   26.2856,   27.4125,   27.7984,   29.4305,   31.1828,   32.9672,   34.9805,   36.2710,   37.0674,   38.3327,   38.3675,   39.0580,   39.4818,   40.5835,   40.7308,  999.0000,  999.0000,   42.6704,   43.6861,   44.6759,   45.0937,   44.4080,   44.1613,   44.1674,   44.8425,   46.1698,   45.9557,   46.5713,  999.0000,   48.9410,   47.5717,  999.0000,  999.0000,
  5-NOV-1996 07:46:36.49,    5.3794,    5.3704,    5.3160,  999.0000,  999.0000,   10.1589,   10.6492,   10.5576,  999.0000,  999.0000,  999.0000,  999.0000,  999.0000,  999.0000,  999.0000,  999.0000,  999.0000,  999.0000,  999.0000,  999.0000,  999.0000,   22.1547,   22.3426,   22.5990,   23.5631,   24.5437,   25.5865,   24.8558,   25.2922,   25.2230,   24.5669,   25.4556,   26.8170,   27.5395,  999.0000,  999.0000,   32.2962,   33.1514,   34.8334,   36.4943,   38.1449,   37.9752,  999.0000,  999.0000,  999.0000,  999.0000,  999.0000,  999.0000,  999.0000,  999.0000,  999.0000,  999.0000,  999.0000,  999.0000,  999.0000,  999.0000,  999.0000,  999.0000,  999.0000,  999.0000,  999.0000,  999.0000,  999.0000,   46.4235,   48.2110,
  5-NOV-1996 07:51:12.81,    5.3664,    5.3283,    5.1875,  999.0000,  999.0000,  999.0000,  999.0000,  999.0000,  999.0000,  999.0000,  999.0000,  999.0000,  999.0000,  999.0000,  999.0000,  999.0000,  999.0000,  999.0000,  999.0000,  999.0000,  999.0000,  999.0000,  999.0000,   23.5656,   24.8603,   25.2335,   25.1773,   25.5624,   24.4488,   24.2854,   24.5103,   25.0282,   25.4704,   26.7085,   29.3015,   30.5185,   30.8020,   32.5683,   34.3953,   35.7220,   36.8944,  999.0000,   37.6014,   38.5556,   39.0242,   39.8609,   40.3473,   40.1581,   40.4491,   42.1790,   43.8186,   44.2286,   44.1116,   44.8357,   45.2941,   44.7521,   45.0487,   45.9133,   44.6730,   44.8548,   45.6510,   46.9886,   46.9762,   47.3852,   49.7649,
  5-NOV-1996 07:55:49.99,    5.4560,    5.4491,    4.8204,    5.1423,  999.0000,  999.0000,  999.0000,  999.0000,  999.0000,  999.0000,  999.0000,  999.0000,  999.0000,  999.0000,  999.0000,  999.0000,  999.0000,  999.0000,  999.0000,  999.0000,   22.2077,   22.0314,   22.2274,   23.9564,   24.6333,   25.3306,   24.9865,   25.3895,   23.5953,   23.7939,   23.6514,   24.2399,   25.4743,   26.2595,   28.5481,   30.0060,   29.7488,   32.1818,   34.2354,   35.9413,   36.8082,   37.7368,   37.4312,   38.0414,  999.0000,   39.8515,   40.4361,   39.9631,   40.4716,   42.4019,   44.0085,   44.1972,   44.2935,   44.9613,   44.9471,   44.3167,   44.9384,   45.9589,   45.1151,   44.8658,   45.8450,   45.5154,  999.0000,   48.1337,   50.1340,
  5-NOV-1996 08:00:24.83,    4.9526,    4.8712,    4.8790,    4.8491,  999.0000,  999.0000,  999.0000,  999.0000,  999.0000,  999.0000,  999.0000,  999.0000,  999.0000,  999.0000,  999.0000,  999.0000,  999.0000,   19.8296,   20.7772,   21.6651,   21.9812,   21.8032,   21.4856,   23.4013,   24.9033,   25.7321,   24.9787,   25.5466,   24.2774,   24.3408,   24.2634,   24.4920,   24.6919,   25.8683,   27.8844,   29.4022,   31.4489,   33.9957,   35.3154,   37.1032,   37.8928,   38.8294,   38.8301,   38.8598,   39.8849,   40.8356,   41.7159,   41.4327,  999.0000,   43.1474,   45.1299,   45.3062,   44.4435,   45.3876,   45.1679,   44.2289,   45.1654,   46.8811,   46.4120,   45.4873,   45.8972,   46.7144,   47.8046,   48.0909,   49.0086,
  5-NOV-1996 08:05:02.30,    2.9202,    2.9749,    3.0469,    3.0968,  999.0000,  999.0000,  999.0000,  999.0000,  999.0000,  999.0000,  999.0000,  999.0000,  999.0000,  999.0000,   16.1841,   16.3712,  999.0000,  999.0000,   20.6194,   20.8748,   20.7997,  999.0000,  999.0000,  999.0000,   25.3386,   26.3789,   25.0807,   25.3336,   25.5879,   25.4536,   25.4317,   24.0405,   24.5129,   26.5232,   28.0057,   29.6357,   31.2370,   32.5773,   34.1374,   36.4194,   37.1167,   37.2964,   38.6749,   39.0816,   39.3288,   39.5787,   40.6843,   41.1193,   40.9269,   42.7077,   43.9336,   44.6311,   44.9493,   44.8526,   44.6968,   44.2640,   44.9758,  999.0000,   45.8620,   45.1188,   46.3812,   45.6664,   46.0708,   47.6064,   50.0287,
  5-NOV-1996 08:09:36.75,    3.9841,    4.2897,    4.4194,    4.8008,  999.0000,  999.0000,  999.0000,   15.7118,   16.1524,  999.0000,  999.0000,  999.0000,  999.0000,   15.1976,   15.6497,  999.0000,  999.0000,  999.0000,   20.1641,   20.7264,   20.9982,   20.6881,  999.0000,  999.0000,   25.4713,   25.4028,   24.8663,   24.7613,   25.1338,  999.0000,   25.2577,  999.0000,   24.8888,   27.1053,   27.0544,   27.5510,  999.0000,   30.8092,   31.9001,   35.3170,   36.3567,   37.3427,   38.3553,   38.1128,   37.8530,   38.6235,  999.0000,  999.0000,  999.0000,  999.0000,  999.0000,   44.4132,   43.9747,   44.5328,   43.6855,  999.0000,   45.3046,  999.0000,   46.1522,   45.2014,   45.9708,   45.9464,   46.7998,  999.0000,  999.0000,
  5-NOV-1996 08:14:10.73,    4.8922,    4.9818,    4.7396,    5.0185,  999.0000,  999.0000,  999.0000,  999.0000,  999.0000,  999.0000,  999.0000,  999.0000,  999.0000,  999.0000,  999.0000,  999.0000,  999.0000,   19.4705,   20.9424,   21.5151,  999.0000,  999.0000,  999.0000,   25.3255,   25.7032,   25.9940,   26.6210,   27.3152,   26.7995,   28.0149,   26.7177,   25.8693,   26.1431,   27.2150,   27.9197,   29.3927,   31.0996,  999.0000,  999.0000,  999.0000,  999.0000,  999.0000,  999.0000,  999.0000,  999.0000,  999.0000,  999.0000,  999.0000,  999.0000,  999.0000,  999.0000,  999.0000,  999.0000,  999.0000,  999.0000,  999.0000,  999.0000,  999.0000,  999.0000,    6.6346,    7.8440,  999.0000,  999.0000,    4.1001,    4.5195,
  5-NOV-1996 08:18:46.70,    2.7711,    2.8014,  999.0000,  999.0000,  999.0000,  999.0000,  999.0000,  999.0000,  999.0000,  999.0000,  999.0000,  999.0000,  999.0000,  999.0000,   16.2820,   16.3599,  999.0000,  999.0000,   20.4716,   20.9091,  999.0000,  999.0000,  999.0000,   25.0171,   26.6050,  999.0000,   26.3805,   26.8738,   27.5012,   28.0978,   27.0428,   25.8719,   26.5617,   29.0796,   29.3025,   29.4826,   30.3952,   31.9462,   33.2771,   34.3559,   35.9943,   37.7377,   37.0032,   38.0983,   38.1688,   39.9892,  999.0000,  999.0000,   42.3094,   43.8018,   43.8251,   43.5345,   44.3734,   44.4729,  999.0000,  999.0000,   48.2924,   47.0021,  999.0000,  999.0000,  999.0000,  999.0000,  999.0000,  999.0000,  999.0000,
  5-NOV-1996 08:23:20.33,    2.8190,  999.0000,   -0.3620,    0.0324,    1.8942,  999.0000,  999.0000,  999.0000,  999.0000,  999.0000,  999.0000,  999.0000,  999.0000,  999.0000,  999.0000,  999.0000,  999.0000,   19.4560,   20.7201,   21.6428,   21.7984,  999.0000,  999.0000,   25.2142,   27.0596,   28.9764,   28.2110,   27.6627,   26.5784,   27.0048,   26.5917,   26.3066,   27.6816,   29.5889,   29.8656,   30.4281,  999.0000,  999.0000,  999.0000,  999.0000,  999.0000,  999.0000,  999.0000,  999.0000,  999.0000,  999.0000,  999.0000,  999.0000,  999.0000,  999.0000,  999.0000,  999.0000,  999.0000,  999.0000,  999.0000,  999.0000,  999.0000,  999.0000,  999.0000,  999.0000,  999.0000,  999.0000,  999.0000,  999.0000,  999.0000,
  5-NOV-1996 08:27:54.00,    3.3410,    3.0180,    3.9676,  999.0000,  999.0000,  999.0000,  999.0000,  999.0000,  999.0000,  999.0000,  999.0000,  999.0000,  999.0000,  999.0000,  999.0000,  999.0000,   19.7589,   20.2207,  999.0000,  999.0000,  999.0000,  999.0000,  999.0000,   23.9669,   25.7004,   27.0780,   27.1421,   26.6997,   26.8027,   28.4257,   28.6009,   28.3954,   28.9630,   29.2166,   27.9322,   28.8360,   30.2938,   32.1668,   33.0831,   33.4181,   35.2146,   37.3904,   37.8773,   37.8041,   37.7594,   39.1864,   41.1861,   41.9610,   41.7753,   43.5438,   44.2329,   44.9531,   45.7766,   44.9272,   43.1640,   44.3049,  999.0000,   45.8053,   45.2361,   44.8027,   45.5923,   46.7382,   48.0093,   46.1471,   47.8633,
  5-NOV-1996 08:32:28.02,    3.7744,    3.4003,  999.0000,    5.4938,    7.1327,    8.1234,  999.0000,  999.0000,   13.1671,   14.0336,  999.0000,  999.0000,  999.0000,  999.0000,  999.0000,  999.0000,  999.0000,  999.0000,  999.0000,  999.0000,  999.0000,  999.0000,  999.0000,   24.3214,   25.2444,  999.0000,   25.9920,   26.2890,   26.2941,   27.6530,   27.8289,   28.5762,   28.9499,   28.3936,   27.2152,   27.8520,   28.8203,   30.2452,  999.0000,  999.0000,  999.0000,   35.5171,   35.1524,   35.8314,   37.6042,   39.8636,   41.2954,   41.6154,   42.2840,   42.7436,  999.0000,  999.0000,   44.8540,   44.5208,   43.5118,   43.9466,   45.8389,   44.8749,   44.6909,  999.0000,   45.6297,   46.0722,   45.8369,   47.7233,  999.0000,
  5-NOV-1996 08:37:01.92,    3.0274,    3.0520,  999.0000,  999.0000,  999.0000,  999.0000,  999.0000,  999.0000,  999.0000,  999.0000,  999.0000,  999.0000,  999.0000,  999.0000,  999.0000,  999.0000,  999.0000,  999.0000,  999.0000,   20.1234,   20.4051,   20.9891,   23.2285,   24.9503,   26.2085,   25.7018,   24.8582,   26.1205,   25.8231,   27.1974,   27.0806,   27.2010,   27.2019,   26.7800,   27.1557,   27.7059,  999.0000,   29.6674,   31.5956,   32.4413,   34.0551,   35.4217,  999.0000,   37.4121,   39.4227,   39.8878,   41.5430,  999.0000,  999.0000,  999.0000,   43.0834,   44.0493,   45.5229,   44.9384,   43.9765,   45.0816,   44.5763,   43.7436,   44.9142,   46.3270,   46.0168,   46.2076,   47.3654,  999.0000,  999.0000,
  5-NOV-1996 08:41:37.94,    3.1763,    4.5396,  999.0000,  999.0000,  999.0000,  999.0000,  999.0000,  999.0000,  999.0000,  999.0000,  999.0000,  999.0000,   16.3933,   16.7234,  999.0000,  999.0000,  999.0000,  999.0000,  999.0000,  999.0000,  999.0000,  999.0000,  999.0000,   24.1300,  999.0000,   24.0566,   23.3699,   25.3087,  999.0000,   28.5536,   27.0663,   27.0532,   26.2790,   26.2675,  999.0000,   26.6753,  999.0000,  999.0000,   30.5817,   31.3047,   33.8306,   35.1945,  999.0000,   38.8359,   39.8109,   40.6873,   41.3560,   42.2751,   43.2622,   43.2899,   42.9535,   43.9140,   44.4493,   43.6668,   43.0339,   44.2254,   43.6082,   43.2722,   44.4693,  999.0000,   45.5017,  999.0000,  999.0000,  999.0000,  999.0000,
  5-NOV-1996 08:46:12.07,    2.8519,    4.4696,    5.3969,  999.0000,    8.4086,   10.1103,  999.0000,  999.0000,  999.0000,  999.0000,  999.0000,  999.0000,   15.7997,   16.1857,   16.6133,   16.6375,   15.6191,  999.0000,  999.0000,  999.0000,  999.0000,  999.0000,   23.0468,   24.2740,   25.4432,   24.8978,   25.8907,   27.5780,   28.3396,   29.2285,   28.6538,   28.6702,   27.2266,   26.1581,   26.8617,   29.3143,   30.3737,   31.2176,   31.7805,   33.2961,   35.5437,   36.3599,   37.3764,   39.2964,   40.4513,   40.1852,   41.5997,   42.9108,   43.7383,   44.0496,   43.5851,   44.0942,   44.2252,   43.9527,   44.1362,   44.6876,   44.3598,   44.6881,   45.3351,   45.2637,   45.5734,  999.0000,   48.3265,   49.8014,   50.0485,
  5-NOV-1996 08:50:46.07,    3.4112,    4.1681,  999.0000,  999.0000,  999.0000,  999.0000,  999.0000,  999.0000,  999.0000,  999.0000,  999.0000,  999.0000,  999.0000,   17.2842,   17.3785,   15.8611,   13.8740,  999.0000,  999.0000,   19.9063,   21.3882,   22.8904,  999.0000,   24.7989,   24.7276,   24.2118,   25.1981,   25.7634,   26.1131,   26.1418,   27.3884,   29.1722,   30.1057,   29.3669,  999.0000,   29.2704,  999.0000,   30.7467,   32.0956,   33.1702,   33.8598,   35.6521,   37.1299,   38.3452,   38.6206,   38.8601,   40.6451,   41.9898,   42.9227,   43.5943,   43.0582,   43.6387,   43.9263,   44.2987,   44.1748,   44.3358,   44.1341,   44.1146,   46.0309,   45.2293,   46.7643,   49.0455,   50.4864,   50.7046,  999.0000,
  5-NOV-1996 08:55:20.42,    4.2582,    4.5720,    6.3398,    7.7821,   10.2158,   11.0499,  999.0000,  999.0000,  999.0000,  999.0000,  999.0000,  999.0000,  999.0000,   19.3794,   20.1725,   18.3763,  999.0000,  999.0000,  999.0000,  999.0000,  999.0000,  999.0000,   23.9018,   23.9488,   25.0240,   24.3495,   24.7203,   25.6682,   25.7791,   25.7707,   26.6615,  999.0000,   28.0495,   27.9501,   26.8804,   29.0523,   31.0211,   31.3120,   32.2713,  999.0000,   34.8298,   36.2481,   36.4285,   36.2230,   37.0334,   39.1845,   41.0028,   42.2862,   42.8152,   42.3722,   43.1339,   43.2912,   43.2739,   43.4682,   43.3645,   44.2541,   44.3197,   43.6257,   44.3168,   44.6000,   45.8781,   47.8092,  999.0000,   49.7630,   49.7676,
  5-NOV-1996 08:59:54.32,    3.3298,    3.8417,  999.0000,  999.0000,  999.0000,  999.0000,  999.0000,  999.0000,  999.0000,  999.0000,  999.0000,  999.0000,  999.0000,  999.0000,  999.0000,   18.5535,  999.0000,   17.8002,  999.0000,  999.0000,   21.3085,   23.4277,   25.5163,   25.8857,   27.0625,   26.8364,   27.3916,   27.5999,   27.3183,   27.4408,   27.5895,   27.8611,   28.0490,   29.1147,  999.0000,   31.3012,   33.4419,   32.9259,   34.1422,   35.2116,   36.3363,   37.2480,   36.7186,   37.0481,   37.9879,   39.9613,   41.7086,   43.1149,   43.0292,   42.8969,   43.8398,   43.8554,   43.8051,   43.3773,   43.5642,   45.3774,   44.9656,   44.3219,   44.4667,   45.3470,   46.5472,   49.2132,  999.0000,  999.0000,   51.6514,
  5-NOV-1996 09:04:28.85,  999.0000,  999.0000,  999.0000,  999.0000,  999.0000,  999.0000,  999.0000,  999.0000,  999.0000,  999.0000,  999.0000,  999.0000,  999.0000,  999.0000,  999.0000,  999.0000,  999.0000,  999.0000,  999.0000,  999.0000,  999.0000,  999.0000,  999.0000,  999.0000,  999.0000,  999.0000,  999.0000,  999.0000,  999.0000,  999.0000,  999.0000,  999.0000,  999.0000,  999.0000,  999.0000,  999.0000,  999.0000,  999.0000,  999.0000,  999.0000,  999.0000,  999.0000,  999.0000,  999.0000,  999.0000,  999.0000,  999.0000,  999.0000,  999.0000,  999.0000,  999.0000,  999.0000,  999.0000,  999.0000,  999.0000,  999.0000,  999.0000,  999.0000,  999.0000,  999.0000,  999.0000,  999.0000,  999.0000,  999.0000,  999.0000,
